GFSNW_850_thetae_057.txt.gz
Theta_e
301 300 300 300 300 299 305 308 307 305 307 307 308 309 307 309 309 309 308 307 309 311 313 314 311 311 312 311 311 310 308 310 313 314 311 312 312 311 310 312 310 306 306 311
301 300 300 300 300 300 303 307 305 305 306 308 308 306 308 309 309 308 308 308 307 307 308 310 310 309 309 311 309 309 308 307 313 313 311 310 314 314 311 308 306 306 313 313
301 300 300 300 300 300 304 306 299 305 306 306 305 307 307 308 309 308 307 307 306 307 307 306 308 309 309 310 311 310 308 306 306 310 308 309 313 314 314 314 316 314 312 313
301 300 300 301 300 300 299 302 299 300 298 302 303 305 305 308 308 308 308 307 307 307 308 308 308 308 308 308 311 309 308 307 303 307 307 309 310 311 313 313 313 314 313 312
300 300 300 300 300 300 298 297 298 299 296 297 301 302 306 304 304 307 309 308 307 306 308 307 309 307 307 308 306 309 304 306 303 304 306 307 308 307 309 311 312 313 312 312
300 300 300 300 300 299 299 298 300 299 295 295 302 298 300 305 304 307 307 307 307 308 308 306 308 306 305 305 305 305 305 302 301 304 304 305 306 307 307 308 309 311 313 312
300 300 300 300 299 299 299 299 298 298 296 295 296 296 298 299 301 304 307 306 308 307 308 307 306 305 305 305 303 304 303 302 302 300 302 304 304 303 305 306 306 307 308 309
300 300 300 299 299 299 299 299 299 297 295 294 296 295 295 296 298 300 306 306 303 308 307 307 307 306 308 306 305 304 302 302 302 303 302 303 305 307 305 306 308 304 305 306
300 300 299 299 298 298 297 297 298 298 296 294 295 295 294 293 293 298 303 305 306 308 306 307 308 307 307 308 307 305 305 303 304 304 304 306 303 307 307 305 308 307 306 306
300 299 299 299 298 297 298 297 296 297 296 295 295 294 294 295 294 293 296 297 303 307 305 310 309 305 304 307 306 307 307 308 306 306 306 306 303 304 305 309 307 308 309 310
299 299 299 298 297 297 298 298 297 296 296 295 295 295 295 295 294 293 295 300 301 304 308 307 307 306 302 303 304 305 306 305 306 306 307 307 304 307 309 305 306 306 307 309
299 298 298 298 297 297 297 297 297 296 296 295 295 295 295 295 295 296 295 298 300 298 305 304 306 307 306 301 304 299 306 303 304 304 305 303 304 305 304 302 299 301 305 307
298 298 298 298 298 297 297 296 297 297 295 295 295 295 295 295 295 295 295 296 297 297 297 298 302 306 305 307 307 304 303 302 303 304 304 302 303 303 301 299 299 300 302 306
298 297 298 298 297 297 297 297 297 298 297 295 295 295 295 295 295 296 295 296 296 296 296 296 297 300 298 304 300 301 302 302 301 301 301 299 303 300 299 298 297 298 300 301
297 297 298 297 296 297 297 298 298 298 298 296 295 296 296 296 296 295 295 296 295 295 295 292 295 296 297 296 295 297 298 297 299 299 297 298 297 297 299 298 298 298 298 299
297 297 297 296 295 297 297 298 298 299 300 298 292 295 296 297 296 295 295 295 295 295 294 294 294 294 296 296 297 296 296 296 297 296 296 296 297 297 297 297 298 298 298 297
297 296 295 295 296 296 297 298 298 298 299 299 291 292 296 296 296 295 294 294 294 294 294 294 293 294 295 297 297 296 297 297 297 297 297 296 297 298 298 298 298 299 299 298
296 296 296 296 296 296 297 298 298 298 297 296 282 285 295 295 296 296 295 294 294 294 294 294 294 294 293 295 295 298 297 296 297 296 295 296 297 297 297 298 298 298 299 302
296 296 297 296 297 298 297 297 297 297 297 296 291 287 285 294 295 297 295 294 293 293 293 293 294 294 295 298 298 297 297 296 295 295 295 296 297 297 295 295 297 298 299 301
295 295 296 297 298 298 298 298 298 298 296 297 290 291 287 294 294 295 296 294 293 288 294 293 295 295 297 298 297 294 294 296 295 294 294 295 295 295 296 297 297 298 298 301
295 296 296 297 297 296 296 295 293 294 291 294 293 293 290 294 291 292 296 296 289 287 292 294 293 296 297 297 294 293 292 292 295 295 294 294 294 294 294 296 296 297 297 297
296 297 297 297 296 294 288 281 289 289 289 294 295 294 293 294 295 296 297 295 295 293 293 291 292 294 299 296 295 293 293 291 291 294 295 295 294 293 294 294 294 295 295 295
297 297 296 293 291 287 286 288 285 286 292 295 294 290 293 293 294 295 296 297 296 294 297 294 292 299 297 296 294 292 292 291 290 291 295 294 294 293 293 294 292 290 292 293
295 296 288 286 287 285 285 287 287 293 295 294 293 292 291 293 293 295 295 295 299 299 292 291 286 297 295 292 292 292 293 292 291 290 293 295 294 293 293 293 293 290 289 290
295 293 289 286 288 288 291 294 295 294 294 293 292 292 292 288 292 296 294 294 298 292 290 286 297 295 292 292 292 292 292 291 291 291 292 295 294 293 293 292 291 290 288 288
295 292 289 289 290 287 291 294 294 294 294 293 293 286 284 288 290 294 292 290 289 290 285 297 296 294 292 291 292 292 292 292 291 290 293 294 294 293 293 293 292 289 288 287
295 291 293 293 294 294 294 294 294 294 294 287 288 285 288 290 292 293 293 293 288 295 295 292 292 293 292 291 291 291 292 292 290 289 292 292 293 292 292 292 292 291 291 291

GFSNW_850_thetae_060.txt.gz
Theta_e
307 302 301 300 300 300 305 307 308 306 307 308 309 311 308 309 310 309 309 311 311 313 313 313 312 314 313 313 310 312 310 315 317 317 313 314 314 316 316 317 317 315 314 315
305 301 301 301 300 300 305 307 305 306 306 311 310 307 309 309 311 309 309 310 309 309 312 314 312 312 310 311 311 312 311 314 316 315 313 313 316 316 315 314 314 317 317 315
303 301 301 301 300 300 303 306 307 306 306 306 307 309 310 311 309 309 308 309 308 309 310 310 312 312 310 311 312 309 310 311 314 316 315 314 315 315 315 315 318 316 316 315
303 301 301 301 300 300 303 303 305 304 307 306 307 308 308 311 311 310 309 310 309 309 311 311 311 311 311 311 310 311 312 314 310 309 311 313 313 314 314 316 315 316 315 315
302 301 301 301 300 300 299 299 302 300 299 300 306 307 308 308 307 310 311 311 310 309 311 310 311 311 311 313 311 313 310 313 309 309 308 309 311 312 313 314 314 314 314 314
301 301 301 301 300 299 300 299 299 301 297 302 307 304 304 306 306 308 308 309 310 311 309 307 308 307 306 309 312 311 312 311 312 313 307 308 310 309 310 311 312 313 314 313
301 301 300 301 300 300 299 300 301 300 301 302 302 299 301 305 304 306 308 306 310 305 306 306 306 306 306 307 306 307 309 310 310 312 308 312 307 305 307 309 309 309 311 311
301 301 300 301 300 300 299 299 299 299 299 299 298 298 298 298 301 303 305 305 303 307 307 310 311 311 310 308 308 307 307 309 310 312 311 309 310 309 309 310 312 309 311 312
301 301 300 300 299 299 298 299 299 298 299 298 296 297 296 300 301 305 304 304 307 307 310 311 311 312 310 311 309 307 306 308 310 309 311 310 309 309 307 308 313 309 309 309
301 300 300 299 298 299 299 298 298 299 297 295 295 298 298 296 296 301 299 298 304 307 311 312 311 310 307 311 310 311 310 310 311 311 310 309 307 306 306 312 311 306 306 307
300 300 300 299 299 299 299 298 297 298 296 295 295 295 295 295 295 301 296 302 303 306 310 311 311 310 307 308 306 309 310 310 310 310 311 310 305 308 310 305 302 301 301 303
300 299 300 298 298 299 298 297 297 297 296 295 295 295 295 295 296 296 296 300 300 300 305 307 307 308 308 308 310 304 310 307 309 309 309 304 303 305 302 298 298 299 298 299
299 299 299 297 298 298 298 297 296 297 295 295 295 295 295 295 295 296 297 297 297 298 298 302 305 307 305 309 309 308 305 304 308 308 305 301 301 302 299 299 299 298 297 299
298 299 298 298 298 297 298 299 299 298 297 298 295 294 295 294 295 296 296 296 297 296 296 299 302 305 300 306 303 305 303 302 301 303 303 301 302 301 299 298 298 297 297 299
298 299 298 298 298 297 299 299 298 298 298 299 295 295 295 296 295 295 295 296 295 296 298 300 301 298 300 299 299 301 299 299 301 302 300 298 299 298 298 298 298 298 298 298
297 299 298 297 297 297 298 299 298 298 299 298 299 295 296 296 295 295 295 295 295 295 296 296 295 295 297 299 299 298 297 296 297 298 298 297 297 297 297 297 298 298 298 298
298 298 297 297 297 298 298 299 299 299 299 298 295 296 296 296 296 295 295 294 294 295 295 296 295 295 296 298 300 297 298 298 298 297 297 296 296 296 297 297 297 297 296 297
297 296 295 296 296 297 297 298 298 298 297 295 296 294 296 295 296 296 295 295 294 294 295 295 295 295 295 297 297 297 298 298 297 297 296 295 295 296 296 296 295 297 298 298
297 295 296 297 297 297 298 298 297 296 295 293 293 297 296 294 295 296 295 294 296 293 296 295 295 297 299 300 298 297 297 296 296 296 295 295 295 295 295 296 295 296 297 297
296 296 297 298 297 296 297 297 298 296 295 295 292 291 295 294 295 296 296 295 297 297 296 294 296 299 298 298 297 296 295 294 293 294 294 295 295 294 294 295 294 294 295 295
297 296 295 297 297 296 295 294 295 293 295 294 292 293 295 293 296 297 296 297 295 299 297 297 299 300 299 298 296 294 293 293 293 292 292 294 294 293 294 294 294 293 294 295
297 297 297 296 296 294 292 288 291 294 296 294 295 294 293 294 294 296 297 297 296 300 294 296 299 300 298 296 295 293 292 292 292 292 291 290 293 293 293 292 293 293 292 294
297 297 296 293 290 291 294 291 293 295 292 292 292 293 293 293 294 295 296 297 298 295 299 299 299 297 296 294 292 292 292 292 292 292 291 290 292 294 293 293 292 292 288 290
296 295 291 294 293 293 292 295 295 292 294 293 292 292 293 293 294 295 296 297 299 300 299 299 298 296 294 293 292 292 292 292 292 292 291 291 292 293 293 293 292 292 292 289
294 294 293 292 288 288 290 292 293 293 293 293 292 292 293 293 295 296 296 296 297 299 299 297 295 294 293 293 292 291 291 291 292 292 291 290 292 292 293 293 292 291 290 289
294 292 291 289 292 289 290 292 293 293 293 292 292 291 293 294 294 295 295 295 295 297 294 295 292 291 291 291 291 291 291 290 291 291 290 289 290 291 292 293 292 291 290 288
294 291 292 292 293 293 293 294 294 294 293 294 291 291 292 291 293 294 294 295 296 294 291 290 290 290 290 290 290 291 290 290 290 290 290 290 290 290 291 292 292 291 291 290

GFSNW_850_thetae_063.txt.gz
Theta_e
319 311 303 301 300 300 305 309 309 307 306 310 310 313 311 310 311 311 311 313 314 313 314 313 314 315 314 313 312 314 313 316 317 318 315 316 316 316 316 317 318 316 316 316
318 309 302 301 300 300 306 309 306 306 306 312 312 310 311 311 312 311 311 313 312 311 314 315 313 314 312 313 312 313 313 317 318 317 315 315 317 316 316 316 316 318 317 316
316 306 302 301 301 300 306 308 307 306 307 308 310 312 312 312 311 310 310 311 311 311 313 313 314 314 313 313 313 310 311 315 316 318 317 316 316 316 316 316 319 316 316 315
312 304 302 301 301 300 304 306 309 308 308 309 309 311 311 312 312 311 310 311 311 312 313 314 314 313 312 313 312 313 314 316 312 312 313 315 315 315 316 317 316 317 315 315
310 303 301 301 300 300 303 303 305 304 308 307 310 310 312 312 311 312 312 312 312 311 313 312 313 313 313 314 313 314 312 314 312 313 311 311 313 313 314 315 315 316 315 315
307 302 301 301 300 299 301 299 302 305 303 307 310 310 311 310 310 310 311 311 312 312 310 309 309 310 309 312 314 314 314 312 314 316 310 310 311 311 312 312 313 313 314 314
304 302 301 301 300 300 300 300 303 304 306 308 309 305 307 307 307 310 310 309 312 307 306 307 308 309 309 310 310 311 313 313 313 314 310 313 308 307 308 309 310 310 310 311
303 301 301 300 300 299 299 300 301 303 305 305 302 303 304 305 304 307 309 307 305 306 308 312 312 312 311 310 310 310 310 312 313 314 313 311 311 310 310 311 312 311 311 310
303 301 301 300 300 299 299 299 300 302 303 303 302 302 303 307 309 308 307 305 308 310 312 312 311 312 312 312 311 309 309 310 311 311 312 311 312 309 309 309 313 308 308 308
302 302 300 300 299 299 299 299 299 301 300 297 298 302 302 299 303 309 305 304 308 309 312 312 311 311 309 312 311 311 311 311 312 312 311 311 308 308 308 311 311 305 305 304
302 301 300 299 299 299 299 299 299 300 299 297 297 297 298 298 299 306 301 305 307 309 312 312 312 311 309 310 310 310 311 311 310 310 311 311 306 309 310 306 304 302 302 301
301 301 300 299 299 300 299 298 298 299 298 297 295 295 296 296 297 299 301 304 304 304 308 309 309 309 309 310 311 307 310 309 310 310 311 307 304 306 304 302 302 302 301 300
301 300 299 298 300 299 299 298 297 297 297 297 297 296 296 295 296 297 301 300 300 300 300 306 306 307 307 310 310 309 307 306 309 309 307 307 303 304 302 301 300 300 300 299
300 300 298 299 298 298 298 298 299 299 299 300 296 295 295 295 296 296 297 299 298 298 300 304 307 307 303 308 306 307 307 304 305 304 304 303 304 304 302 300 300 300 300 300
299 299 298 299 298 298 300 300 299 299 302 300 297 295 296 295 295 296 296 297 298 299 301 303 305 302 303 302 302 304 302 303 303 303 302 301 301 300 299 299 299 299 298 298
299 298 299 298 298 299 299 299 298 298 297 298 300 295 296 295 296 296 296 296 297 298 300 300 298 297 300 302 302 301 300 298 299 300 299 299 299 298 298 298 297 297 297 297
299 298 298 298 299 299 299 301 299 299 299 299 298 298 295 295 295 296 296 296 296 298 298 299 298 298 298 301 302 300 299 299 300 299 298 298 298 297 296 296 297 296 296 296
298 297 297 297 298 298 298 298 299 299 296 295 301 297 297 296 297 297 296 297 297 297 298 297 298 297 297 300 300 299 299 298 298 298 298 297 296 296 296 295 295 295 294 295
298 297 297 297 298 298 298 299 299 297 295 298 299 301 300 296 297 297 297 297 299 296 299 298 297 300 300 301 300 298 297 297 296 295 294 294 294 294 294 294 294 293 293 293
296 297 298 298 297 298 297 296 298 295 295 294 296 295 297 297 298 297 297 297 300 300 299 296 299 302 301 299 298 297 296 296 295 294 294 294 293 292 292 293 293 293 292 292
297 297 296 296 297 296 296 296 299 296 299 297 295 296 296 295 299 298 297 298 298 301 301 300 302 303 301 299 297 296 295 295 295 294 294 294 293 292 291 292 292 292 293 293
297 297 296 297 296 294 297 295 295 298 300 296 297 296 296 295 295 297 297 298 297 302 297 298 301 302 298 295 294 293 292 292 292 293 292 292 292 292 291 291 292 293 293 293
297 297 297 295 292 297 301 296 297 298 296 294 294 295 295 294 295 295 297 298 300 297 298 300 301 298 296 294 292 292 292 291 291 291 292 292 291 291 290 292 292 292 292 292
297 295 295 299 296 299 300 302 301 295 296 295 295 295 296 294 296 296 298 299 299 299 299 301 300 297 294 294 292 291 291 291 291 291 291 291 291 290 291 291 292 292 292 292
294 295 297 295 291 291 291 293 294 294 294 294 294 295 296 295 296 297 298 298 298 300 301 300 297 292 291 290 290 290 290 290 291 290 290 291 290 290 290 290 291 292 292 291
294 292 293 291 294 293 293 294 292 293 294 293 295 295 296 296 297 297 297 297 298 300 299 296 292 291 290 290 290 290 290 290 290 290 289 288 288 288 290 290 290 290 291 291
294 293 292 294 295 295 294 295 293 293 294 298 296 296 295 294 296 296 296 297 298 297 294 292 290 290 290 290 290 290 289 289 289 289 288 288 287 287 288 290 291 290 291 290

GFSNW_850_thetae_069.txt.gz
Theta_e
307 308 310 318 308 310 306 308 306 307 306 307 308 310 310 310 311 311 312 313 313 312 312 313 314 313 313 313 312 313 312 312 313 315 313 313 315 316 315 314 315 311 310 311
305 309 310 317 312 312 307 308 307 306 306 305 309 311 310 311 311 310 311 313 311 314 312 314 314 312 313 312 312 312 312 309 314 311 311 313 316 315 315 313 312 313 310 310
308 312 312 316 306 304 307 306 306 306 306 306 307 309 311 312 310 310 310 310 310 311 312 313 313 312 312 312 312 311 311 312 308 309 310 312 315 315 315 312 307 314 314 311
311 312 314 315 304 303 308 307 304 305 307 305 306 309 310 312 311 311 310 310 311 311 313 313 313 312 313 312 311 311 311 310 306 311 311 313 314 314 315 312 313 312 312 313
307 312 314 306 305 306 308 308 306 306 304 306 305 307 310 312 311 311 310 311 310 310 311 310 312 311 313 312 311 313 309 308 306 306 310 310 311 311 312 313 313 314 313 313
308 310 313 312 301 302 307 305 306 307 306 304 305 307 309 312 310 310 309 310 309 309 308 307 308 309 310 310 310 312 310 305 303 307 308 307 307 307 310 312 312 312 313 311
308 310 308 305 301 302 304 304 305 305 304 303 306 308 309 310 307 310 308 308 309 307 307 308 309 309 309 309 308 311 310 308 305 303 306 305 306 306 307 309 309 308 308 308
307 308 306 302 300 301 302 303 305 304 302 303 306 306 305 306 307 307 307 306 306 307 308 308 308 308 309 309 307 309 309 309 307 307 305 308 309 308 308 310 309 306 306 304
308 305 303 301 300 299 301 301 303 304 302 299 300 304 305 304 305 306 306 307 308 309 308 309 309 309 309 309 309 307 307 306 305 306 306 310 308 307 308 307 310 304 304 302
306 305 302 300 299 299 301 301 302 303 299 298 300 301 303 305 305 303 306 306 308 310 308 309 307 306 308 308 308 309 307 307 305 307 304 307 306 307 307 306 304 302 302 301
305 303 301 299 299 299 300 299 302 303 298 297 299 300 300 300 302 303 302 305 306 306 309 308 307 306 305 307 307 307 307 305 306 306 309 307 304 306 308 302 301 301 301 300
305 302 300 298 298 298 299 299 301 301 301 296 297 298 298 300 301 303 303 303 303 305 304 305 303 305 304 304 306 305 308 305 306 305 305 303 304 301 300 301 300 300 299 299
303 301 300 299 298 298 298 300 300 300 296 295 296 296 296 298 300 303 303 303 303 303 304 303 302 306 303 305 305 305 305 304 305 305 304 303 300 300 300 300 299 298 298 298
301 301 300 297 297 298 298 300 300 300 298 295 295 295 296 296 297 300 302 303 302 303 304 303 301 303 302 303 303 303 304 303 301 301 300 299 300 300 300 299 299 298 297 297
301 300 301 297 297 297 298 299 299 299 300 296 295 296 296 297 297 299 300 300 301 301 302 297 299 300 300 298 298 299 302 301 300 301 299 299 299 299 299 297 296 296 296 296
300 300 300 297 297 297 298 300 300 301 299 298 294 295 295 296 297 297 299 299 300 300 300 298 298 298 298 297 298 299 300 300 300 299 299 299 299 298 298 294 294 294 294 294
300 299 298 296 297 299 300 301 299 299 296 297 294 294 296 296 297 297 297 297 298 298 298 297 297 297 298 295 298 298 298 299 299 299 298 298 297 295 293 293 293 293 292 292
300 299 297 297 298 299 299 298 298 297 296 297 290 293 296 297 297 297 297 297 298 298 297 297 296 297 295 296 297 298 298 297 297 296 294 294 293 293 293 293 293 293 292 292
299 297 296 297 298 298 298 296 295 295 295 298 293 290 290 297 297 296 297 297 297 296 296 296 296 296 294 296 298 296 297 296 295 293 293 293 293 292 292 292 292 292 292 292
298 296 297 298 299 299 298 298 295 295 295 295 291 295 293 297 297 296 297 297 298 293 296 296 296 296 296 296 295 294 293 293 293 292 292 292 291 291 291 291 291 291 291 291
296 297 299 298 298 297 296 296 294 296 293 295 296 295 294 296 296 297 297 297 297 299 296 295 298 300 295 294 293 292 292 291 291 291 291 291 291 290 291 291 291 290 290 290
298 298 297 298 296 295 291 287 293 295 294 295 294 296 295 296 297 296 296 296 296 300 296 297 297 298 294 292 292 291 290 290 290 290 290 290 290 290 290 290 288 287 288 289
298 299 297 296 293 290 289 291 294 291 295 295 295 290 294 294 295 296 296 296 298 296 297 297 297 297 294 292 291 290 290 290 290 290 290 290 290 290 289 288 287 287 287 287
297 296 292 289 287 290 295 294 292 296 295 295 295 295 294 294 295 295 287 296 296 291 290 291 292 295 292 291 291 290 290 290 289 290 290 290 289 289 289 287 287 287 287 287
295 295 290 287 291 293 295 295 296 295 295 295 294 293 294 292 290 293 292 294 287 290 291 292 296 293 291 291 290 290 289 289 289 289 289 289 289 289 288 287 288 287 287 287
294 293 290 292 291 292 294 295 295 295 295 295 295 290 288 291 289 289 287 287 287 289 287 297 294 291 291 290 289 289 288 288 288 288 288 288 289 289 288 288 289 290 290 289
293 292 293 294 294 293 294 295 295 295 296 290 291 289 291 290 288 291 287 287 287 297 296 292 291 291 290 289 289 289 289 289 289 288 288 288 288 289 288 289 290 291 291 290

GFSNW_850_thetae_072.txt.gz
Theta_e
299 300 302 303 307 304 306 307 307 306 306 307 308 308 310 310 311 310 312 312 311 307 309 312 312 313 312 311 311 312 311 309 312 315 312 312 314 315 311 308 310 308 308 310
299 300 303 305 307 304 308 307 306 307 306 307 308 309 309 311 311 311 312 313 312 312 311 312 311 311 312 311 311 311 311 307 304 308 309 311 315 314 313 311 309 309 309 310
299 300 307 306 308 306 307 306 306 307 307 306 307 310 310 312 310 309 310 310 310 311 312 311 311 311 312 312 311 311 311 309 307 308 308 310 314 315 314 311 307 312 312 310
299 302 307 308 307 306 307 305 304 305 305 305 305 307 309 311 310 310 309 310 310 311 313 313 312 312 313 312 311 311 309 308 305 310 310 312 312 314 313 310 310 310 311 310
300 301 306 309 308 307 307 307 304 305 302 305 305 307 308 310 310 309 309 310 310 310 311 310 311 312 312 312 310 312 307 305 305 305 309 308 311 311 312 313 312 313 312 313
300 305 308 309 307 307 307 306 306 306 303 301 306 306 307 311 309 308 309 308 308 308 308 307 309 310 310 310 310 310 308 305 302 306 305 306 308 307 310 311 311 312 313 310
304 305 307 308 306 307 305 305 306 306 304 303 305 307 309 309 308 309 307 309 307 307 308 308 308 308 307 308 307 309 307 306 302 301 304 305 305 305 306 308 307 306 307 307
306 307 307 305 305 305 303 305 305 305 301 302 306 306 305 306 307 306 306 306 306 307 308 306 307 306 308 308 306 308 307 307 306 305 303 305 308 307 308 309 308 303 303 302
306 306 307 304 304 304 302 303 304 304 301 297 301 303 305 304 303 304 305 307 307 309 307 307 308 308 307 309 308 306 305 305 305 305 306 310 306 306 307 307 308 301 301 300
306 306 305 303 302 305 302 301 303 304 298 297 300 302 304 306 303 302 305 307 309 309 306 308 306 305 306 308 307 308 307 307 306 306 303 305 305 305 307 306 304 300 301 301
304 304 303 301 301 303 301 300 302 302 298 297 299 301 301 303 305 303 304 305 306 305 307 306 306 305 304 305 305 306 306 304 305 305 308 308 303 305 306 302 300 301 300 300
303 303 301 301 301 300 299 299 301 301 301 296 298 299 300 301 302 303 303 303 304 305 303 303 302 305 302 302 306 303 307 304 305 304 305 301 301 301 300 301 301 300 300 300
302 302 300 299 301 300 300 299 301 301 297 296 296 297 298 299 301 302 304 303 304 305 304 302 301 305 302 304 304 304 304 303 304 304 303 298 299 300 300 300 300 300 299 298
301 300 300 300 299 298 299 300 300 300 298 295 295 296 297 297 299 302 303 305 304 305 304 303 300 303 301 302 302 302 302 302 301 299 297 298 299 299 299 299 297 297 297 296
300 300 299 299 298 298 299 300 299 300 299 295 295 296 296 297 298 300 302 302 304 303 302 296 298 299 299 297 297 299 300 300 301 301 299 298 299 299 298 297 294 294 294 294
300 300 298 297 297 298 299 299 299 299 299 298 294 295 296 297 298 299 300 301 301 301 299 296 297 297 298 297 298 297 298 299 299 299 299 299 299 298 297 293 293 293 293 292
300 299 299 297 297 298 299 299 299 299 298 298 294 295 296 296 297 297 297 298 299 299 298 296 296 297 298 295 297 297 298 299 299 298 297 298 297 294 293 293 293 292 292 292
300 299 297 297 298 298 298 299 299 298 297 296 291 295 295 297 297 296 297 297 298 298 296 296 295 295 295 296 296 297 298 297 296 295 293 293 293 293 292 292 291 291 291 291
299 298 297 297 298 298 298 298 298 295 295 295 290 291 292 296 296 296 297 297 296 296 295 295 296 295 294 296 297 296 296 296 294 293 293 292 292 291 291 291 291 291 290 290
298 297 299 299 298 298 295 295 296 295 295 296 289 294 293 296 297 296 296 297 294 289 296 295 295 296 295 295 296 294 293 293 292 291 291 291 291 290 290 290 290 290 289 288
297 298 298 298 298 298 297 296 293 295 291 295 295 295 293 296 293 296 297 296 297 298 297 295 294 300 295 294 293 292 291 291 291 290 290 290 290 290 290 290 290 289 288 287
297 298 298 298 298 294 293 291 291 291 291 293 294 295 296 296 297 295 295 294 296 295 296 297 297 293 295 292 292 291 291 290 290 290 290 290 290 289 289 289 289 288 287 287
298 299 299 295 292 290 289 289 289 294 293 294 294 290 294 294 295 296 295 291 292 296 297 296 293 296 293 292 291 291 290 290 290 289 289 289 289 289 289 289 289 287 287 287
298 296 292 292 291 289 291 293 291 293 295 294 294 293 293 294 292 293 288 295 294 289 289 291 288 297 295 293 291 291 290 290 289 289 288 288 288 288 288 289 289 287 287 288
295 294 295 287 291 293 294 295 294 294 295 295 293 292 294 288 290 293 293 293 287 290 290 289 298 297 294 292 291 290 289 289 288 289 289 288 288 288 287 288 289 288 288 290
293 292 289 291 292 292 294 295 294 295 295 295 295 288 288 290 290 290 288 288 289 289 286 298 297 295 293 291 290 289 289 289 289 289 288 288 288 288 287 287 287 288 288 290
293 292 292 292 293 293 294 294 295 295 295 289 289 287 290 289 289 291 287 289 288 296 297 296 292 291 291 290 289 289 288 289 289 288 288 288 288 287 287 286 286 287 287 288

GFSNW_850_thetae_075.txt.gz
Theta_e
297 298 299 300 301 304 305 305 306 305 305 307 305 302 307 309 310 310 311 310 308 307 308 311 311 312 311 311 310 312 310 308 312 314 312 311 313 314 309 308 310 306 306 308
298 298 299 300 302 304 305 305 304 305 306 305 304 308 308 310 310 310 311 312 311 309 309 311 310 311 311 311 310 311 310 306 303 307 308 310 314 314 310 308 306 307 307 309
298 300 300 300 303 304 305 304 305 306 306 305 305 309 310 312 310 309 309 309 309 311 311 310 310 310 311 311 310 311 310 307 306 307 309 309 314 314 312 309 305 311 310 309
300 299 300 301 304 305 304 303 304 305 306 305 305 308 310 311 311 309 309 309 310 310 312 311 311 311 311 311 310 309 307 307 304 308 309 311 312 313 312 308 309 310 311 308
299 300 301 304 305 305 307 304 304 304 301 304 305 307 310 310 310 308 309 309 309 309 310 309 310 311 311 311 309 309 305 304 304 304 306 306 311 310 311 312 311 312 310 311
300 302 304 306 306 305 305 304 305 304 303 301 306 308 307 309 307 308 308 308 307 307 307 306 308 309 309 309 310 309 307 303 301 306 304 306 307 307 309 310 310 311 312 310
304 306 306 307 307 305 305 305 304 304 303 302 307 307 309 309 308 308 306 308 307 307 307 308 308 308 307 307 305 308 306 305 301 301 303 306 306 304 305 308 306 306 306 305
306 307 307 307 306 304 306 304 303 304 300 302 306 307 307 306 306 305 305 305 306 307 308 306 307 306 307 307 306 306 305 305 305 303 302 304 307 306 307 308 308 303 303 301
305 306 307 306 306 303 302 302 303 304 302 298 300 303 306 306 304 303 305 307 307 309 305 306 307 307 307 308 307 305 305 303 304 305 306 309 306 305 305 306 307 301 301 300
305 306 306 305 304 303 304 301 302 303 299 297 300 302 305 305 303 301 305 307 308 308 304 307 305 304 305 307 307 308 308 308 309 306 303 305 303 305 305 307 305 301 301 301
304 304 305 304 305 303 302 300 301 302 299 297 298 300 302 304 305 303 304 306 306 304 306 306 305 304 303 304 304 305 306 304 305 305 308 306 302 305 305 301 300 301 300 300
303 302 302 303 303 303 304 300 301 302 303 297 297 298 300 302 303 304 303 302 304 305 303 302 301 305 301 301 306 302 306 303 305 304 304 299 300 301 300 300 301 300 300 299
303 302 302 302 302 302 302 299 300 301 299 297 298 297 299 300 302 303 304 304 305 305 304 301 300 305 301 303 303 303 303 302 303 303 301 299 299 300 300 300 300 299 299 298
303 302 301 301 301 301 300 299 299 300 299 296 295 297 298 299 301 303 304 305 305 305 304 301 300 303 300 301 301 301 301 302 301 299 298 298 299 300 299 299 297 295 296 295
302 301 302 301 299 299 299 299 299 299 299 296 296 296 296 298 299 301 303 304 305 304 303 296 298 298 298 295 296 298 299 300 301 301 298 298 299 299 299 298 294 293 293 293
302 301 301 299 298 298 299 299 299 299 299 298 294 296 296 297 298 300 301 302 303 301 300 296 297 297 298 297 298 297 298 298 299 299 299 299 299 299 298 295 293 293 292 292
301 299 298 298 298 299 299 299 299 299 298 298 294 294 296 297 298 298 299 300 299 299 297 296 296 296 297 295 298 296 298 299 298 298 298 298 297 295 294 293 292 292 291 291
301 300 297 297 298 298 298 299 299 299 297 296 292 294 295 297 297 297 297 297 297 297 296 296 295 295 294 295 296 296 298 297 296 295 293 293 293 293 292 291 291 290 290 290
300 299 297 298 298 298 298 298 298 297 295 294 292 292 293 296 296 296 297 297 296 296 294 295 295 294 293 295 296 297 297 296 295 293 293 292 292 291 290 290 290 290 290 290
298 297 298 298 298 298 297 296 295 295 295 296 291 293 293 296 295 295 295 296 294 289 295 295 295 295 296 296 296 297 296 294 293 292 291 291 290 290 289 289 289 289 289 288
297 298 298 298 298 295 296 296 293 294 292 295 294 294 293 295 291 293 296 293 295 292 293 294 291 294 295 295 295 294 292 292 291 290 290 290 289 289 289 289 289 289 289 288
298 298 297 297 298 295 290 287 291 293 293 293 293 295 296 296 296 294 295 293 294 293 295 292 292 293 296 295 293 292 291 291 290 290 290 289 289 289 289 288 288 288 288 288
297 298 298 297 293 289 287 289 289 290 291 293 294 291 295 295 295 294 290 290 291 295 297 293 292 295 296 295 292 291 291 291 290 290 289 289 288 287 287 287 287 287 288 288
298 297 295 293 289 287 288 291 292 293 294 294 295 292 293 294 292 291 288 295 292 292 289 291 288 297 297 293 292 292 291 291 290 289 288 288 288 288 288 288 288 287 287 287
295 294 294 287 292 293 293 294 293 293 294 295 293 291 293 289 291 292 294 294 288 291 291 289 297 297 297 295 293 292 291 290 289 288 288 288 288 288 288 288 288 287 286 286
293 292 289 291 293 292 294 294 293 294 295 295 294 288 289 290 290 290 288 290 290 290 286 297 298 297 296 294 291 290 290 289 288 288 288 288 288 288 288 287 287 286 286 286
293 291 292 293 293 293 294 294 294 295 295 289 289 289 290 289 288 290 286 288 287 294 297 297 297 295 291 291 290 289 289 289 288 288 288 288 288 288 287 287 286 286 286 286

GFSNW_850_thetae_078.txt.gz
Theta_e
299 299 299 300 301 300 303 302 304 304 303 306 306 305 304 307 309 309 310 308 307 306 307 310 310 311 310 310 309 311 309 307 314 314 310 310 312 312 307 309 310 305 306 309
299 300 300 302 300 301 304 302 305 305 305 308 307 304 307 309 309 309 310 311 308 307 308 311 310 310 310 310 308 309 309 305 303 306 307 309 313 312 309 306 305 307 306 309
299 300 301 300 301 302 304 303 304 304 305 305 303 306 308 311 309 309 309 309 309 310 310 309 310 310 310 311 310 311 308 305 306 306 308 309 313 313 310 308 303 310 307 308
300 300 301 301 302 303 304 303 304 305 306 306 304 306 308 310 310 308 308 309 309 310 311 310 310 310 310 310 309 308 306 306 303 306 307 310 311 313 312 308 308 308 309 309
302 301 301 302 303 304 304 303 303 303 301 304 303 307 310 310 308 308 309 308 308 308 309 308 310 310 310 310 308 307 304 303 303 303 304 305 311 309 311 311 310 310 307 310
304 304 305 304 304 304 304 305 304 304 303 302 303 307 309 310 307 307 306 307 306 307 307 307 308 308 308 308 309 307 305 302 301 305 303 305 307 307 309 310 310 310 310 309
307 307 306 305 304 305 305 305 305 303 303 301 304 307 309 308 307 307 305 307 307 307 307 307 308 308 306 306 304 305 305 304 300 301 303 305 305 303 304 308 306 306 307 304
306 307 306 305 305 305 305 306 304 303 300 300 306 307 306 305 305 304 304 305 306 307 307 305 306 305 307 305 305 305 303 304 303 303 301 304 306 305 307 309 308 304 303 301
307 306 307 307 306 305 306 303 302 303 302 300 298 305 306 306 303 303 305 307 307 308 303 304 306 306 307 308 308 305 304 303 304 305 306 310 306 305 305 305 306 301 301 300
306 306 305 305 305 304 303 302 302 302 299 298 300 302 304 305 304 301 304 307 308 308 303 306 305 303 304 307 308 307 307 307 310 308 303 304 303 304 304 307 304 300 301 301
305 306 306 305 305 304 303 301 302 302 299 297 299 300 302 304 305 304 304 305 306 304 305 305 304 304 303 303 303 305 305 304 304 306 308 305 300 305 305 301 300 300 301 300
303 303 305 306 306 305 303 301 302 303 303 297 298 299 300 301 302 304 303 302 303 304 302 301 301 304 299 300 305 301 305 303 304 303 303 299 300 300 300 300 301 300 300 299
303 303 304 304 304 305 303 300 300 301 300 297 298 298 299 300 303 304 304 304 305 305 304 300 300 305 300 303 302 302 302 301 302 303 300 299 299 300 300 300 300 299 298 297
302 302 302 303 303 303 304 300 299 300 300 297 296 298 299 300 302 303 304 305 305 305 304 301 300 303 299 300 300 301 301 301 300 300 298 298 299 300 300 299 297 295 295 294
302 302 302 301 302 302 301 299 299 299 299 296 296 297 297 299 300 302 304 304 305 304 302 295 297 297 297 294 296 298 299 300 301 302 299 299 299 300 299 298 296 293 293 293
301 302 302 300 299 299 299 299 299 299 299 299 293 296 296 298 299 301 302 303 303 302 300 296 297 297 297 297 298 297 298 299 299 299 299 299 299 299 299 297 293 293 292 292
301 301 301 298 298 299 299 299 299 299 298 298 292 293 296 297 298 299 300 300 300 300 297 296 295 296 297 295 298 296 298 298 299 299 299 297 298 296 295 294 292 292 291 290
301 299 298 298 299 299 299 299 299 298 297 298 291 292 295 297 297 297 298 298 298 297 295 295 294 294 294 295 296 297 298 298 296 295 294 293 293 293 292 291 290 290 290 289
300 299 297 297 298 299 298 298 298 297 296 295 292 292 291 296 296 297 297 297 296 296 294 294 294 294 294 295 295 296 298 297 296 294 293 292 292 291 290 290 289 289 289 289
300 297 298 298 298 298 298 298 299 296 295 296 289 293 291 295 295 294 296 295 295 292 295 294 294 294 296 297 297 297 297 297 295 292 291 291 291 290 290 289 289 289 288 289
297 297 298 297 297 297 295 296 293 293 292 294 294 294 293 295 293 293 295 291 291 291 294 294 290 293 294 296 297 297 296 294 292 291 290 290 290 290 289 289 288 288 287 287
297 297 297 296 296 295 290 288 291 291 292 292 293 294 295 295 296 294 294 291 289 294 293 290 290 291 296 296 295 294 292 291 290 290 290 290 289 289 288 287 287 287 287 287
297 297 297 296 293 289 289 289 287 291 291 292 293 291 295 294 295 292 289 289 291 294 295 290 290 294 297 296 294 293 292 291 291 291 290 289 289 288 288 288 288 288 287 287
297 296 293 291 288 289 290 290 292 293 294 293 295 291 293 294 291 290 288 295 293 291 288 290 286 296 297 296 295 292 292 291 291 290 289 288 288 288 288 288 287 288 288 287
297 293 291 289 292 292 291 293 294 293 294 295 293 291 293 288 290 292 294 294 290 290 291 288 296 296 297 296 293 293 292 291 290 289 288 288 288 288 288 288 287 288 287 287
294 292 287 290 291 291 291 293 293 294 295 295 294 287 286 289 290 290 291 290 290 291 286 296 297 297 297 296 294 292 290 289 288 288 288 288 288 287 287 287 287 287 286 286
293 291 292 292 292 293 294 294 294 294 294 289 288 287 290 288 286 291 287 289 288 293 297 298 296 296 294 292 290 289 288 288 287 287 287 287 286 286 286 286 286 285 285 285

GFSNW_850_thetae_084.txt.gz
Theta_e
301 302 302 302 302 303 304 303 304 304 303 303 304 308 306 307 310 310 310 309 309 309 310 312 312 313 313 311 310 313 311 316 318 315 312 310 313 314 312 316 315 312 315 313
305 304 303 303 302 304 303 302 300 302 304 307 307 306 308 308 310 310 312 310 309 309 311 312 312 312 311 310 312 313 311 314 319 317 314 313 315 313 312 311 313 313 316 314
306 305 303 303 302 304 304 304 304 302 303 304 306 308 309 311 309 309 310 310 310 311 311 310 311 312 312 310 311 308 309 311 311 314 313 313 316 315 314 313 318 314 313 312
307 305 304 302 303 305 305 305 305 304 307 306 307 307 309 311 311 309 308 311 311 311 312 311 311 311 310 310 309 309 311 313 309 309 309 312 314 314 314 314 312 315 312 313
307 305 303 303 305 305 304 305 306 303 305 304 306 307 311 310 309 309 310 311 309 310 311 310 311 311 311 312 311 310 308 313 309 311 309 311 313 312 314 313 312 312 312 312
304 303 304 305 305 305 304 304 304 304 304 305 307 308 309 310 309 308 306 308 310 310 309 308 308 309 309 309 311 310 310 311 312 314 308 309 312 309 311 312 312 312 314 311
304 304 304 304 305 305 305 305 304 303 304 305 306 308 308 308 307 309 306 306 310 307 306 307 307 308 308 309 308 307 310 309 310 314 310 315 308 305 306 308 309 309 310 308
305 304 305 305 305 305 305 304 303 303 305 304 307 308 307 306 306 306 306 305 306 306 306 310 310 310 311 310 308 309 308 310 311 315 313 309 307 307 309 310 310 307 308 305
305 304 304 305 305 305 304 304 304 303 305 303 301 305 306 309 308 308 307 307 308 307 307 308 310 311 309 311 310 308 309 309 312 311 313 312 309 306 305 307 310 305 305 305
305 304 305 305 304 302 303 304 305 304 301 300 301 305 306 304 305 308 306 307 308 307 309 309 309 309 306 309 309 310 310 310 312 311 312 310 306 304 304 310 308 303 303 303
305 305 305 305 303 303 302 304 304 305 302 299 301 302 302 303 304 309 306 308 308 309 310 309 308 309 307 307 306 308 309 310 310 309 310 309 303 305 308 305 301 302 302 302
304 304 305 305 305 304 302 303 305 305 305 300 301 301 302 303 303 304 304 305 305 306 309 307 307 308 305 306 309 304 308 307 309 308 308 303 302 303 302 301 302 301 301 300
302 302 304 305 305 306 301 301 302 304 302 299 300 300 301 303 304 304 304 305 305 305 305 306 306 309 305 309 308 306 304 302 307 307 304 304 302 301 301 301 300 300 300 299
302 302 302 304 305 305 304 300 301 303 303 303 300 300 301 302 303 304 304 304 305 305 304 305 307 308 302 307 304 305 305 303 306 306 305 301 301 300 301 300 300 299 297 296
302 301 302 302 302 304 304 302 299 300 300 301 298 299 299 301 302 303 304 304 304 304 304 306 307 301 302 299 301 305 302 306 307 308 303 303 302 300 300 299 299 297 295 294
302 301 302 301 301 302 303 300 299 299 300 300 301 298 298 299 300 302 303 303 303 303 302 302 298 298 301 305 305 304 301 302 302 303 301 300 300 300 299 299 298 297 294 292
301 301 301 301 299 301 299 299 299 298 298 299 297 298 297 298 299 300 301 301 301 301 299 299 299 298 299 302 305 303 300 301 300 300 300 299 298 298 298 298 296 293 291 290
301 301 301 301 299 299 298 299 299 298 297 298 297 298 296 297 298 298 299 299 299 298 297 296 298 296 296 302 302 298 298 298 298 298 298 296 295 295 294 292 291 290 290 290
300 299 298 298 298 299 299 298 298 298 297 295 296 300 300 296 296 297 297 298 301 296 298 297 296 299 301 302 300 297 298 298 298 296 294 293 293 292 292 291 290 290 290 289
299 297 297 297 298 298 298 298 298 298 297 295 297 294 298 296 295 296 298 296 299 301 298 294 297 300 299 298 297 297 298 298 297 295 293 293 292 291 290 290 290 290 289 288
300 298 297 297 298 297 297 295 296 294 295 294 294 295 296 295 299 299 296 298 296 300 298 298 300 300 298 297 297 297 297 297 296 295 293 291 291 291 290 290 289 288 288 287
299 297 297 297 297 296 295 294 292 293 296 293 295 295 295 295 296 297 295 298 295 300 294 297 300 299 296 296 296 297 297 297 296 292 290 290 291 290 289 289 288 287 287 287
298 297 297 296 293 294 295 295 294 293 293 293 293 296 295 294 294 294 295 296 298 294 297 299 299 294 296 296 296 296 295 293 291 291 290 291 290 289 288 288 287 287 287 287
299 297 297 297 295 293 295 296 296 293 293 293 295 293 295 294 295 294 296 295 295 296 295 298 297 295 296 296 295 294 292 291 291 291 291 290 288 288 287 286 286 286 286 286
299 297 297 296 295 292 292 292 291 293 293 294 294 293 293 294 294 294 295 294 295 295 299 298 293 296 297 295 294 293 292 292 292 291 289 287 286 286 287 286 286 285 285 284
298 296 293 290 290 290 291 292 292 293 294 295 294 294 294 296 295 295 295 295 297 301 295 293 295 296 296 295 294 293 292 292 290 288 286 286 286 286 286 285 284 283 282 282
296 293 295 292 291 292 292 293 293 293 294 296 294 295 298 291 294 295 294 296 299 293 293 295 296 296 295 294 293 292 290 288 287 286 286 286 285 285 284 284 283 282 282 282

GFSNW_850_thetae_087.txt.gz
Theta_e
306 304 302 303 304 303 305 304 304 303 304 304 305 310 307 308 312 312 311 310 310 311 312 313 314 313 314 312 312 314 313 316 319 317 314 313 315 315 314 317 317 316 317 316
307 303 303 304 304 304 304 301 302 303 304 308 309 308 310 309 312 312 312 310 310 311 313 313 314 314 312 312 314 314 313 316 320 319 316 314 316 315 315 314 317 316 319 316
306 304 303 304 303 303 304 305 305 304 304 306 309 310 310 312 311 311 311 311 312 312 312 313 314 313 313 312 312 309 311 314 315 317 316 315 317 316 314 315 318 315 316 315
305 303 304 304 304 305 306 307 306 306 309 308 309 310 310 312 312 311 311 311 312 312 312 313 312 312 312 311 311 311 313 315 312 312 312 314 315 315 315 315 314 315 314 315
304 303 304 305 305 304 307 308 308 307 307 307 309 310 311 311 312 311 312 312 311 311 312 312 312 312 312 312 313 313 312 316 312 316 312 313 313 313 315 315 314 313 314 314
302 304 305 305 305 305 307 305 306 307 306 308 310 310 311 311 311 310 309 311 312 312 311 311 311 311 311 311 313 313 313 314 316 317 312 312 314 310 312 314 314 314 315 313
304 304 304 304 304 305 305 305 305 307 308 308 310 310 310 310 310 311 309 309 312 309 308 308 311 311 311 311 311 311 312 313 313 317 313 318 310 308 309 309 311 312 312 311
304 305 305 305 305 305 304 304 305 306 308 308 310 310 310 310 309 309 309 308 307 307 308 312 312 312 312 312 311 311 311 312 315 317 314 311 309 309 310 311 312 310 311 309
304 304 305 304 302 302 303 303 303 306 307 308 306 310 309 311 311 311 309 308 308 309 310 310 312 312 311 312 311 310 311 311 313 313 315 313 311 308 308 308 312 308 308 309
305 305 305 304 303 302 303 304 305 305 306 303 303 309 310 308 310 311 309 309 310 308 311 310 310 311 308 310 309 310 311 311 313 313 313 312 308 307 306 311 310 307 307 307
304 305 305 305 304 304 302 304 304 305 304 302 302 303 306 306 308 312 309 310 310 312 312 311 310 310 310 309 309 309 310 310 310 310 311 310 307 307 309 307 304 306 305 305
302 303 305 305 306 305 302 301 303 304 305 302 303 303 304 304 305 306 307 308 309 310 312 310 309 309 308 309 309 307 309 309 310 309 310 306 306 307 304 304 305 304 304 303
302 302 302 303 305 305 306 301 301 303 303 301 302 301 302 303 304 305 307 307 306 307 306 309 310 310 309 309 309 308 308 306 308 308 308 307 306 304 303 302 303 302 301 301
302 302 302 302 303 305 305 302 300 301 302 307 302 302 302 302 303 304 304 305 305 305 305 309 310 309 306 309 307 307 308 306 308 308 308 305 305 304 304 301 301 300 300 299
302 301 302 301 302 304 305 304 301 299 299 304 302 300 300 301 303 303 303 303 304 305 307 309 310 306 305 305 304 307 306 307 308 307 307 307 305 303 302 301 299 298 297 296
301 301 301 302 301 303 304 304 300 299 299 300 304 300 299 299 300 302 302 303 302 304 306 307 304 300 303 308 308 307 306 305 306 306 302 302 301 301 300 300 298 298 297 295
296 302 301 301 300 301 302 300 299 299 299 299 303 302 297 298 299 300 301 301 301 302 304 303 304 302 302 306 307 307 304 303 302 301 301 301 300 300 299 298 298 297 293 292
300 301 301 301 300 299 299 299 299 299 299 298 303 302 299 297 300 301 299 300 300 300 302 299 301 299 300 305 306 303 301 300 300 300 300 298 298 297 296 295 293 292 291 291
300 300 300 299 298 299 299 299 298 299 298 299 299 303 304 297 298 298 299 299 302 299 302 301 299 303 304 305 305 302 299 300 299 298 298 296 294 294 293 292 291 290 291 290
299 298 297 299 298 298 298 298 298 297 297 296 299 298 301 298 298 300 301 299 303 304 302 297 299 302 302 303 301 301 300 299 298 296 294 294 294 293 292 291 290 290 290 289
299 298 297 297 298 298 298 298 300 298 299 297 297 298 300 296 301 302 299 302 301 303 302 300 303 303 302 300 299 298 298 298 297 296 295 293 292 291 291 291 290 289 288 288
300 298 297 297 297 296 298 300 296 296 300 295 297 297 297 296 296 300 298 301 298 303 297 300 302 304 298 297 296 297 297 297 296 296 294 291 291 291 291 290 289 288 287 287
299 297 297 296 296 298 298 299 300 298 296 295 295 297 297 295 296 298 298 299 301 296 299 302 304 298 296 296 296 296 296 296 296 293 291 291 291 290 289 288 287 286 286 286
300 297 299 299 299 298 301 301 301 296 296 295 296 296 297 296 297 298 298 299 297 299 299 301 303 297 296 296 296 296 296 294 292 291 291 291 290 288 286 286 286 286 285 285
299 298 300 301 299 295 295 294 293 293 294 295 295 296 296 297 297 296 297 297 297 298 302 304 298 296 296 296 296 295 293 292 292 292 291 289 287 286 286 286 286 285 284 283
299 297 297 295 294 297 294 294 294 293 294 295 295 297 297 298 298 297 298 298 300 304 299 297 294 295 296 296 294 293 293 292 292 291 288 287 286 286 286 285 285 284 284 283
298 297 296 296 295 298 296 295 294 293 294 298 297 297 299 294 297 297 299 300 302 297 294 294 295 296 296 295 294 294 292 292 289 287 286 286 286 285 285 285 284 284 283 283

GFSNW_850_thetae_093.txt.gz
Theta_e
303 303 304 304 304 304 303 303 304 303 304 303 306 307 308 309 311 312 310 309 310 310 312 313 313 313 313 312 312 313 312 312 314 315 314 313 312 313 310 310 313 310 312 316
303 304 304 304 304 304 303 303 304 304 305 308 309 309 308 310 311 310 310 310 310 311 311 313 312 313 312 312 311 312 311 309 306 308 308 309 313 312 311 311 309 311 311 313
304 304 304 304 305 306 306 304 298 304 305 306 308 309 309 311 311 310 311 311 311 311 311 311 313 312 312 311 311 311 309 310 308 307 311 311 312 311 311 309 307 311 310 310
304 304 304 304 304 305 307 306 301 305 300 305 306 308 310 310 311 310 310 310 310 311 312 311 311 311 310 311 312 310 309 309 306 309 310 312 311 310 312 311 311 310 311 311
305 305 305 305 305 306 308 307 305 307 307 307 309 307 310 311 310 309 310 310 310 309 310 310 311 310 310 310 309 311 308 307 309 306 310 310 309 307 310 311 311 310 310 311
305 305 305 305 305 305 306 307 307 307 306 304 307 307 310 310 310 309 309 309 309 309 309 308 308 308 309 309 309 309 309 307 304 308 310 309 309 307 308 311 310 312 312 310
305 305 306 304 304 304 305 306 306 306 303 304 308 309 309 309 309 309 309 308 309 309 308 309 310 310 310 310 309 308 309 308 304 303 306 308 308 307 308 308 310 309 309 308
305 305 305 303 304 303 304 304 306 306 302 306 308 309 309 309 309 309 309 308 308 308 309 307 308 308 309 310 309 309 307 308 306 305 304 308 307 308 308 309 309 307 307 307
305 305 305 304 304 303 304 304 306 306 305 304 304 306 309 307 307 307 308 308 308 309 307 306 308 307 308 308 306 308 308 306 306 307 308 310 308 307 307 306 307 306 307 306
304 304 305 305 304 304 303 304 305 305 306 305 306 305 305 307 307 306 308 309 309 309 306 307 306 304 306 307 307 307 305 305 306 307 305 307 307 306 306 308 305 306 306 306
303 303 303 305 305 305 304 302 304 304 305 304 306 305 306 307 306 306 308 307 308 307 308 306 305 305 304 304 304 306 305 304 305 304 306 304 305 305 306 304 305 306 305 305
300 303 303 303 305 305 305 303 302 304 305 304 305 306 306 306 307 306 307 307 307 306 305 304 303 304 302 303 304 304 304 303 305 303 304 304 306 306 306 305 305 304 304 304
298 301 303 302 303 304 305 305 301 303 304 303 303 304 305 306 306 305 307 306 306 307 305 305 304 305 302 304 302 305 304 304 304 304 303 304 305 306 306 305 304 304 303 303
297 299 302 302 302 303 304 305 302 301 303 303 304 303 303 303 304 304 305 305 305 305 305 306 303 305 304 303 302 302 302 303 303 302 303 305 306 306 305 304 303 303 302 302
297 298 302 302 302 302 304 304 304 301 300 302 303 302 301 301 302 303 303 303 303 305 305 299 303 304 302 300 299 299 303 303 303 303 304 304 304 304 305 304 303 302 301 300
297 297 302 302 301 300 303 304 302 300 299 299 297 301 300 300 300 301 302 303 303 303 304 304 306 304 303 300 300 302 305 305 306 305 305 305 305 304 303 303 302 301 299 298
297 296 297 302 302 300 302 302 300 299 299 299 298 299 300 298 299 300 301 301 302 302 303 303 303 303 302 298 304 304 306 306 306 305 305 302 302 303 302 301 300 299 297 294
299 300 299 301 301 301 300 301 299 299 298 298 291 292 298 297 299 299 299 300 300 300 301 301 299 300 299 300 301 305 304 305 304 304 304 303 303 301 300 299 297 295 292 291
302 301 301 301 300 299 299 299 299 299 298 298 296 290 294 297 299 299 299 299 297 300 297 297 298 297 299 301 302 303 304 304 304 302 301 301 300 299 297 295 293 292 291 291
300 300 299 298 298 298 298 298 298 298 297 296 296 298 294 298 298 299 298 299 296 292 297 298 296 298 300 302 303 303 304 303 303 301 298 298 298 296 295 293 292 291 291 290
299 298 298 298 297 297 298 298 296 299 296 297 297 298 295 297 294 296 299 293 292 290 295 295 296 298 299 300 300 301 301 303 301 301 300 299 298 296 294 292 291 291 290 287
300 299 298 297 297 297 291 286 294 292 294 297 296 295 298 298 298 298 298 294 294 294 295 293 296 296 300 298 298 300 301 301 300 299 298 297 295 293 292 291 291 289 287 286
299 298 297 296 296 291 290 291 288 288 295 295 296 292 297 296 296 297 292 292 294 295 289 294 296 299 299 297 297 298 298 298 297 295 295 293 293 292 292 290 287 286 287 286
299 297 292 292 289 291 292 292 290 297 296 295 297 296 297 296 294 294 291 294 293 288 290 294 293 300 296 296 296 296 296 296 295 294 293 292 292 291 289 287 286 287 286 286
299 297 295 294 295 297 298 300 297 296 296 296 296 295 296 291 292 293 291 291 288 291 292 293 301 297 296 296 295 295 295 295 295 294 292 291 291 289 287 286 287 286 286 285
299 297 297 297 295 293 296 296 295 295 295 296 297 290 288 292 290 290 290 288 290 291 292 298 298 295 295 296 295 295 295 295 294 292 292 292 289 287 286 287 286 286 285 285
299 297 297 297 296 296 298 297 296 295 295 290 292 289 292 289 287 290 290 290 291 299 298 295 295 295 295 296 295 295 294 293 292 292 291 289 287 286 287 286 286 285 285 284

GFSNW_850_thetae_096.txt.gz
Theta_e
304 304 304 304 304 304 304 304 299 305 307 305 305 303 308 308 310 311 309 309 309 308 308 311 312 312 312 311 312 311 311 312 312 313 311 312 312 312 310 310 313 309 311 317
304 304 304 304 305 306 304 303 303 305 307 302 303 307 308 309 310 309 309 310 310 310 311 311 311 312 311 311 310 311 310 307 305 306 307 308 311 310 310 309 307 310 311 314
304 304 304 304 304 304 306 304 299 306 307 306 306 307 309 310 310 309 310 309 310 310 310 310 312 312 311 311 311 311 309 308 308 306 309 309 311 309 310 307 306 310 310 311
305 304 304 305 305 306 307 304 302 305 300 304 305 307 308 310 309 309 309 309 309 310 311 310 310 309 308 310 311 309 308 308 305 307 307 309 310 307 309 309 310 309 310 310
305 305 305 305 305 305 307 307 306 306 305 305 306 306 309 310 309 308 309 309 309 308 310 310 310 309 309 310 308 309 306 306 308 304 309 308 310 306 308 310 310 309 310 311
305 305 304 305 304 304 306 307 307 307 303 303 305 306 309 309 309 309 309 308 308 309 309 308 308 308 307 306 308 308 308 306 302 305 307 308 309 307 308 310 310 310 311 309
305 305 304 303 304 303 306 306 306 306 303 304 306 308 308 308 308 309 309 308 309 309 308 308 309 308 308 307 307 307 308 306 302 303 305 305 308 306 307 308 309 308 308 308
305 305 305 304 304 303 304 304 306 306 302 303 306 306 308 308 308 308 308 308 308 308 308 306 306 305 307 309 307 307 305 305 304 304 303 305 307 306 307 308 308 307 307 306
304 305 305 305 304 304 304 304 306 306 305 303 307 305 307 306 304 305 308 308 308 309 306 304 307 305 307 307 305 305 306 304 305 305 307 308 306 306 307 305 304 305 306 306
302 303 304 305 305 304 303 304 304 305 306 305 305 305 306 307 306 304 306 308 308 309 305 307 305 303 305 305 307 306 303 304 305 306 305 306 305 305 306 307 301 306 307 307
300 301 303 303 304 305 304 302 303 304 304 304 305 305 306 306 306 306 308 306 307 305 307 305 304 303 303 304 302 306 303 303 303 303 305 304 305 305 305 302 305 306 306 306
300 299 301 303 303 304 305 305 303 302 304 304 305 306 306 306 306 307 307 307 306 306 304 302 301 304 300 301 304 302 304 302 302 302 302 302 305 305 306 305 305 305 305 305
300 298 299 302 302 303 304 305 304 301 303 303 303 304 305 305 305 304 304 306 307 306 306 304 302 305 300 304 301 303 302 302 303 304 301 301 305 306 306 306 305 305 304 304
299 298 298 302 302 302 303 304 304 300 302 302 304 303 304 305 304 304 304 304 304 304 304 304 302 304 303 302 302 301 302 302 302 301 301 303 305 305 305 305 304 304 303 303
298 298 297 302 302 302 302 304 304 302 300 301 301 301 301 302 302 302 302 303 302 303 303 297 301 303 301 299 298 298 302 303 303 305 304 304 304 306 305 304 304 303 302 301
296 299 296 301 302 301 302 303 303 301 299 299 295 300 300 299 299 300 301 301 301 302 303 302 304 305 303 300 300 301 305 306 306 304 305 305 305 305 305 304 303 302 300 299
296 298 296 297 301 302 301 302 301 299 299 299 297 296 299 298 298 299 300 300 301 301 302 301 302 302 302 296 305 304 306 306 306 305 304 303 303 304 303 303 302 300 298 296
297 298 298 297 301 301 301 300 300 299 298 298 289 291 298 297 298 299 299 300 299 300 300 300 298 299 298 299 301 304 304 304 304 304 304 304 304 302 301 301 300 298 294 292
300 301 301 300 301 300 300 299 299 300 298 298 294 289 291 297 298 299 299 298 297 298 296 297 297 297 298 300 301 302 303 303 303 302 301 302 303 301 300 298 296 293 292 291
301 300 301 300 299 299 298 298 298 298 298 297 295 295 294 297 297 298 297 298 295 292 296 297 296 297 300 301 301 300 300 300 302 300 299 299 300 299 298 295 293 292 291 291
299 299 298 299 298 297 297 298 295 297 296 297 296 297 295 297 293 295 298 292 290 290 294 295 294 296 297 301 299 299 300 300 301 302 301 300 300 298 295 293 292 291 291 289
299 299 298 297 297 297 292 288 292 292 295 296 296 296 298 297 298 297 296 293 293 294 293 292 293 293 299 299 297 298 300 300 299 300 300 299 298 296 294 292 292 291 289 287
300 300 297 296 295 292 291 292 289 287 293 295 295 291 297 296 296 296 291 292 294 293 288 293 292 297 299 297 296 297 298 298 299 298 297 296 295 293 292 292 291 288 287 287
299 297 293 292 291 293 294 293 292 295 296 295 296 295 295 295 293 293 290 293 291 290 292 292 289 298 298 296 296 296 296 296 296 295 294 293 292 292 292 290 287 287 287 286
299 297 295 293 295 295 295 296 296 296 295 296 295 294 295 289 291 293 291 291 293 290 292 290 298 299 296 295 296 296 295 296 295 294 294 293 292 292 289 287 286 287 286 286
299 297 296 296 294 294 295 297 295 295 296 296 296 289 288 291 289 290 290 288 289 292 287 298 297 297 296 296 296 296 295 295 295 294 293 292 292 290 287 286 287 286 286 285
298 297 297 297 297 297 297 298 296 295 296 292 290 289 292 289 286 291 289 289 290 295 298 296 297 298 298 297 296 296 295 295 295 294 292 291 291 288 286 287 286 286 286 285

GFSNW_850_thetae_102.txt.gz
Theta_e
304 304 304 305 306 306 307 308 302 308 309 306 302 305 306 308 309 309 309 307 306 307 307 309 309 310 308 309 310 310 309 311 311 308 309 307 310 311 307 307 309 307 311 310
305 304 304 304 305 306 306 307 308 309 309 303 300 304 307 308 308 307 308 309 308 307 307 310 308 308 310 309 308 309 309 306 303 303 304 306 309 309 308 307 304 307 309 311
306 305 305 304 304 306 306 307 301 308 307 305 304 305 305 307 308 307 307 308 307 308 309 307 309 310 309 309 309 310 308 306 306 304 305 306 308 307 306 306 301 308 307 308
305 306 306 303 303 304 306 307 303 304 300 304 303 305 306 308 308 307 308 308 307 308 309 309 309 308 307 308 309 309 306 307 303 304 304 305 306 307 306 306 306 307 307 308
305 305 306 305 302 304 306 306 306 305 303 304 304 304 306 308 308 307 308 308 307 307 309 308 308 308 307 308 306 307 304 304 305 302 306 305 307 305 305 304 308 306 307 307
304 305 305 305 303 304 306 306 306 305 302 302 304 305 307 307 307 307 308 307 306 306 307 308 308 308 307 306 307 305 305 303 301 305 303 304 306 305 305 306 307 307 309 307
301 304 305 306 303 304 305 305 305 305 303 301 304 306 307 306 307 307 307 307 307 307 307 307 306 305 305 304 303 304 304 304 301 303 302 301 303 304 305 306 305 305 306 306
300 301 303 305 304 303 304 305 305 305 301 302 304 306 306 307 306 305 307 308 308 308 307 304 303 302 304 305 303 302 302 303 303 302 300 303 304 304 305 306 305 303 305 305
296 300 300 303 305 304 303 303 304 305 304 300 305 305 306 304 303 303 306 307 307 308 303 303 306 303 304 304 302 301 301 301 304 303 305 304 300 304 305 304 303 302 305 304
295 297 300 299 303 305 304 303 302 304 305 305 305 304 304 306 304 302 304 307 307 307 303 306 304 302 301 304 304 304 303 301 305 305 304 304 302 304 304 306 300 304 306 306
297 295 299 298 301 303 304 304 303 301 303 303 303 304 305 305 305 304 306 305 304 303 305 305 303 302 301 302 301 302 302 301 301 301 304 304 303 304 305 302 304 305 306 306
304 295 297 299 299 302 303 304 304 303 302 302 303 303 304 303 305 306 306 305 304 306 302 301 300 303 297 299 303 298 301 300 301 301 302 301 304 305 306 305 305 305 305 306
306 298 295 299 298 302 302 303 304 304 303 303 303 303 303 303 304 304 305 304 306 306 305 302 300 304 300 303 299 301 300 299 300 302 302 300 302 303 304 306 305 305 305 305
306 303 295 297 297 301 302 302 303 303 302 299 302 303 303 303 303 303 303 304 304 304 305 303 300 302 302 300 301 299 301 299 299 298 300 302 304 305 305 305 304 304 305 304
305 305 296 296 298 299 301 301 301 303 302 298 300 302 302 301 302 302 301 302 302 303 302 297 300 300 300 298 296 297 301 301 300 303 304 302 303 304 304 305 305 304 304 304
305 306 299 295 298 298 301 301 302 302 302 300 295 298 298 298 299 299 299 300 300 301 302 300 302 302 302 300 299 300 304 305 305 303 304 304 303 303 304 304 304 304 303 303
306 306 303 294 297 296 300 301 301 299 298 298 296 296 298 298 298 298 298 298 299 300 301 299 299 300 302 298 304 304 304 304 304 304 302 302 303 302 304 304 304 304 303 302
306 306 303 295 297 297 297 299 301 300 298 298 287 291 295 297 297 297 298 298 298 299 299 298 298 298 298 301 302 303 304 303 303 303 301 300 300 301 301 302 303 303 302 301
305 306 300 297 299 299 299 300 300 299 299 297 293 290 293 296 297 297 297 297 296 297 295 296 297 298 299 300 301 302 303 302 301 300 298 298 299 301 300 301 302 302 300 299
305 302 299 300 300 299 299 298 298 298 298 298 293 294 292 297 296 295 296 296 295 290 295 296 297 298 299 302 302 302 301 300 297 296 297 298 299 300 301 301 301 300 300 298
301 300 300 299 299 298 297 297 295 296 295 296 296 295 293 296 294 295 296 292 292 292 294 294 293 294 295 301 301 300 299 297 299 299 298 298 299 300 301 300 299 299 298 295
302 300 298 298 298 296 295 295 292 293 296 295 293 294 297 296 297 297 295 293 292 296 291 293 297 293 300 300 299 298 297 299 300 299 299 300 300 300 300 300 299 298 294 292
300 300 298 297 296 292 294 294 292 295 295 293 293 294 297 295 297 294 291 292 295 292 291 294 294 296 299 299 298 297 298 298 299 299 299 299 299 299 299 299 296 294 293 292
301 298 296 295 292 292 293 294 294 296 295 294 296 293 294 295 294 292 291 294 291 293 295 294 293 299 300 298 297 297 298 298 298 299 299 298 298 298 297 295 294 293 292 289
299 298 299 296 295 294 295 296 295 294 295 296 295 293 295 291 291 292 292 292 294 293 294 293 298 299 298 298 298 298 298 298 298 298 298 296 295 295 295 293 292 292 289 287
299 297 297 293 291 290 293 294 295 295 295 296 295 293 294 295 292 291 292 295 296 296 290 299 299 298 299 299 299 299 298 298 297 297 297 295 294 294 293 292 292 290 287 287
296 297 298 297 295 296 295 295 295 296 295 296 294 293 296 290 289 291 293 295 297 296 298 299 298 299 299 299 299 300 299 298 297 297 297 296 294 293 292 292 292 290 287 287

GFSNW_850_thetae_105.txt.gz
Theta_e
305 304 304 304 306 307 308 308 303 308 309 307 301 305 307 308 308 308 308 306 306 306 306 308 308 310 308 308 309 311 309 311 310 308 307 306 309 309 306 309 309 308 309 312
306 306 304 303 304 306 306 308 308 308 309 303 298 304 306 307 307 306 307 308 307 306 307 309 308 308 309 309 308 309 308 308 308 303 303 305 309 308 307 305 304 308 310 311
305 306 306 303 303 306 306 306 300 308 308 305 303 305 306 307 307 307 307 307 307 307 308 306 308 309 308 309 309 310 309 305 306 306 305 305 308 307 306 306 305 307 308 308
305 306 306 304 302 305 306 307 303 303 300 304 303 304 306 308 308 307 307 307 307 308 309 308 308 307 307 307 309 309 306 307 302 304 305 305 306 307 305 305 305 308 307 307
301 305 306 305 302 305 306 307 306 304 303 303 304 305 306 307 307 307 308 308 307 306 308 307 308 307 306 306 306 306 303 306 304 302 305 305 306 305 304 305 305 305 305 307
300 301 305 306 303 305 306 306 306 305 301 301 303 304 306 306 306 307 307 306 305 306 305 308 308 308 307 306 306 304 304 303 302 305 303 303 304 304 304 305 304 306 308 307
298 300 301 306 304 304 305 305 305 304 302 301 303 305 306 305 306 306 306 307 305 306 307 307 306 305 304 303 303 304 303 303 301 303 302 299 301 303 303 304 305 304 305 305
296 298 300 302 305 303 303 304 304 305 300 301 302 305 305 306 306 305 306 307 307 307 307 303 303 301 303 303 301 300 301 303 303 302 301 303 302 304 305 306 305 303 304 304
303 295 299 299 302 305 303 303 304 304 304 299 304 305 305 303 302 302 306 307 307 307 302 302 304 302 302 303 302 299 300 300 304 302 304 304 299 303 304 303 303 300 303 303
307 299 295 299 299 303 304 304 302 303 304 304 304 304 304 305 303 301 303 306 306 306 302 305 303 301 300 303 303 304 303 301 305 305 304 304 301 304 304 306 301 303 305 306
306 305 296 296 299 300 303 303 304 302 302 302 303 303 304 304 305 303 305 304 303 302 304 304 303 302 300 301 300 300 302 300 301 301 304 304 302 303 305 302 303 304 306 306
304 306 300 294 298 298 301 302 303 303 302 303 303 303 303 303 303 305 305 304 303 305 301 300 300 303 297 298 303 297 302 299 300 301 302 301 303 305 306 305 305 305 305 305
305 306 305 295 296 298 301 302 302 303 303 303 302 303 304 303 302 303 304 304 306 305 305 302 299 303 299 303 298 299 299 298 299 301 301 300 302 303 303 303 303 304 304 304
309 304 306 301 295 298 298 301 301 302 302 299 302 302 302 302 302 302 303 304 304 304 304 303 299 302 302 300 300 298 301 298 298 298 300 302 304 303 304 304 304 304 304 303
308 305 305 305 295 297 298 299 301 300 301 299 301 302 301 301 301 301 301 302 302 302 302 297 300 300 298 297 296 297 300 300 300 303 303 302 302 303 303 303 304 304 303 303
310 305 304 305 298 296 297 301 302 301 301 300 296 298 297 298 298 299 300 300 300 301 302 300 301 301 301 300 299 300 304 304 304 303 304 303 304 303 303 302 302 303 303 303
310 306 305 306 301 296 297 300 301 301 300 298 296 296 297 297 297 297 298 298 299 300 300 298 299 300 301 297 303 303 303 303 304 304 303 302 303 302 301 300 302 302 303 303
308 305 305 305 301 298 297 298 298 300 299 298 291 294 294 296 297 297 297 297 298 298 299 297 297 297 298 299 300 303 303 303 303 303 303 302 301 300 299 298 301 301 301 301
306 304 304 304 300 299 299 299 299 299 299 297 293 294 294 296 296 296 296 297 295 296 295 296 296 297 299 299 300 302 303 303 303 302 302 300 297 297 298 300 301 300 300 300
304 303 303 300 300 299 299 298 298 297 298 298 293 295 293 296 295 295 295 295 295 290 295 296 297 299 299 300 302 302 302 302 301 300 298 298 299 299 300 301 300 300 300 300
304 303 301 300 298 298 298 297 296 296 294 296 296 295 295 295 295 296 296 293 293 293 295 295 295 297 295 302 302 302 302 300 298 297 299 299 299 299 300 301 301 300 300 299
304 302 299 298 298 297 296 296 294 294 295 295 293 293 297 296 297 297 294 294 292 297 292 295 297 297 300 300 301 300 299 298 298 300 300 299 300 300 300 300 300 300 299 298
301 301 299 298 296 296 296 294 290 291 295 294 293 291 297 296 296 295 293 294 296 291 293 295 296 297 299 301 300 299 298 298 298 300 301 301 300 299 300 300 300 299 297 295
301 297 297 297 296 294 293 293 292 295 296 294 295 294 294 295 294 294 293 294 291 293 296 296 295 298 301 299 299 299 299 299 298 299 300 300 299 299 299 299 298 297 295 293
300 297 299 296 296 295 295 295 295 295 295 295 295 293 295 291 292 293 291 293 293 293 297 297 299 301 301 300 299 299 299 299 299 298 298 299 299 298 297 297 296 294 293 292
300 297 298 297 292 290 294 295 295 295 295 296 296 293 292 293 291 291 291 291 292 298 295 300 300 300 300 299 299 299 299 299 299 298 298 298 298 297 296 295 294 293 292 291
296 296 299 297 295 298 299 299 296 295 295 296 295 295 294 289 287 289 290 291 297 299 300 301 300 300 299 299 299 299 299 300 299 299 298 298 297 296 295 295 294 293 292 291

GFSNW_850_thetae_108.txt.gz
Theta_e
306 306 303 304 307 307 308 308 312 308 309 312 308 311 309 308 307 308 309 308 309 310 310 311 312 312 311 309 310 312 311 312 313 313 310 309 311 312 312 313 314 314 314 315
305 306 305 302 305 306 307 308 308 308 308 315 312 308 308 308 309 308 309 310 309 308 310 311 311 311 310 309 311 312 312 312 314 309 309 309 311 312 311 310 310 313 315 314
303 306 306 302 303 306 307 307 314 308 308 306 309 310 309 310 307 308 308 309 308 309 311 309 312 312 310 309 310 309 310 311 313 312 310 308 310 310 311 311 313 312 312 312
300 303 306 303 303 306 306 307 306 305 312 309 307 308 309 310 310 308 307 309 310 311 311 310 311 310 309 309 310 311 311 313 312 311 311 311 311 311 310 311 311 311 311 311
299 300 305 305 304 306 307 307 307 305 304 304 307 307 309 309 309 308 310 310 309 309 311 311 311 310 309 310 309 311 308 313 309 309 310 309 309 309 309 310 310 310 310 310
301 300 300 306 303 306 306 306 306 306 303 306 308 308 308 308 308 307 307 307 308 308 308 307 308 308 307 307 309 309 309 311 310 311 309 308 309 308 308 308 308 309 310 310
306 300 300 300 306 303 305 305 305 305 306 306 308 307 307 308 307 308 307 307 308 306 307 307 306 306 306 306 307 307 309 308 309 312 310 309 305 306 306 308 308 308 309 309
306 304 298 300 301 305 303 303 304 304 305 304 304 305 307 306 306 307 307 307 307 307 307 309 308 307 306 306 305 306 306 309 311 312 310 308 305 306 307 308 308 307 308 308
304 307 301 298 299 301 305 303 303 304 305 305 305 306 306 308 307 306 305 306 306 307 307 307 308 306 304 306 305 303 305 307 308 308 310 308 304 305 305 306 308 304 304 307
304 305 306 298 298 299 301 304 304 302 303 304 303 305 306 305 305 307 305 305 306 306 309 309 308 307 303 306 306 308 308 307 309 309 309 310 308 306 304 308 306 304 306 307
313 305 306 303 297 299 299 301 303 304 302 303 303 303 304 305 305 307 305 306 305 306 309 309 308 308 306 305 305 305 308 309 308 308 310 311 305 304 307 307 304 304 305 305
313 311 304 306 298 297 299 301 302 302 303 304 304 304 302 303 303 304 305 305 305 307 308 306 307 308 305 306 308 301 305 306 307 308 308 306 304 307 305 305 304 304 304 304
313 313 308 305 305 298 297 299 301 301 301 302 302 303 303 303 303 303 304 304 305 306 306 306 307 309 306 308 306 306 304 301 304 303 306 304 304 303 302 302 302 303 303 303
312 312 310 305 306 303 297 298 299 301 301 301 303 303 302 303 303 302 302 303 304 304 304 305 307 308 305 307 307 305 307 302 305 305 305 304 304 304 303 303 304 304 304 304
312 311 310 304 306 305 299 297 297 299 300 301 301 302 302 301 301 302 301 301 302 303 303 304 305 304 303 304 301 305 304 305 306 307 306 305 305 304 303 304 303 302 302 302
311 310 308 305 305 305 299 298 302 302 300 300 302 300 298 298 298 299 300 300 300 301 302 303 302 301 303 307 307 305 305 305 305 305 305 304 304 303 304 303 302 301 301 301
310 310 308 305 305 305 300 298 300 301 301 299 298 299 296 297 297 297 298 298 299 300 300 299 301 300 301 303 306 306 304 304 304 304 303 302 303 303 303 302 301 300 299 302
308 308 307 304 304 304 303 302 298 299 299 298 298 298 295 296 296 297 296 297 297 298 299 297 298 298 300 303 304 303 303 302 302 302 302 303 302 301 301 300 297 297 300 301
307 307 305 304 303 302 302 300 299 297 298 297 295 299 303 295 295 296 296 296 298 296 298 298 298 301 302 303 302 302 302 302 303 303 303 302 301 301 298 298 298 299 300 301
305 306 304 302 302 302 300 298 298 297 298 298 296 295 297 296 295 296 297 295 299 299 298 296 298 300 300 300 301 302 302 303 303 302 301 300 298 299 299 300 300 300 300 300
304 304 303 301 300 299 299 297 296 297 297 296 295 295 296 295 299 299 297 298 297 299 299 299 300 300 300 301 301 301 301 303 303 302 301 298 299 299 300 300 300 301 300 300
304 303 300 298 298 298 297 297 296 296 299 296 295 294 296 295 296 298 295 298 295 299 294 296 299 300 300 301 301 301 302 302 301 299 298 300 300 300 301 300 300 301 300 300
302 301 300 298 296 297 297 297 296 296 296 294 293 295 296 295 296 297 297 298 298 292 296 297 299 300 299 300 301 300 300 299 299 299 299 300 301 300 300 299 300 300 300 299
300 297 297 298 299 297 298 298 299 296 295 294 295 294 296 295 296 296 297 297 294 296 297 299 301 300 300 300 300 300 300 299 299 299 299 299 300 300 300 299 299 299 299 298
299 297 298 298 298 296 295 296 296 295 295 295 296 294 295 296 297 295 295 295 296 296 300 302 300 299 300 301 301 300 300 300 300 299 299 298 299 299 299 299 298 298 297 295
298 298 298 297 296 294 294 296 295 295 295 296 296 295 295 297 296 294 295 296 297 301 298 299 300 301 301 301 300 300 300 299 300 300 299 298 298 298 298 297 297 296 295 294
297 296 299 299 298 299 298 300 298 296 296 298 297 297 299 292 295 294 295 297 300 299 300 301 302 301 301 301 300 300 299 300 300 300 299 299 298 298 297 297 296 295 295 293

GFSNW_850_thetae_111.txt.gz
Theta_e
306 306 303 305 306 306 308 310 315 308 311 315 313 314 310 308 309 309 311 310 312 313 312 313 313 314 313 311 311 313 313 314 316 315 313 313 314 315 314 314 313 314 314 314
303 307 306 302 305 306 307 311 311 308 311 317 314 311 310 310 311 311 311 312 312 311 312 313 313 312 312 311 312 313 313 315 316 314 311 311 312 312 313 314 312 312 312 313
300 304 307 303 304 306 307 310 316 312 310 310 312 312 312 312 309 310 310 311 311 311 312 312 313 313 312 311 312 310 311 313 314 314 312 312 312 311 312 313 314 312 313 312
300 300 305 305 304 306 307 309 310 308 315 311 311 311 311 312 312 310 310 311 312 312 313 312 312 312 311 310 311 312 313 314 313 313 312 311 311 311 311 312 312 313 312 310
304 300 300 306 304 306 307 311 311 307 309 308 311 309 312 311 311 311 311 311 311 311 312 312 312 311 311 311 311 312 312 313 312 311 310 310 310 310 311 311 311 311 311 312
307 303 300 301 305 305 307 306 306 308 307 310 310 311 311 311 310 310 310 310 310 310 310 309 309 309 310 310 310 312 312 312 312 312 311 311 312 311 310 309 310 310 311 310
306 307 302 300 302 305 304 304 305 308 309 309 310 309 309 309 310 310 309 309 310 309 307 308 308 308 308 309 309 309 310 310 311 312 311 313 309 308 307 308 309 309 309 309
308 305 307 301 299 302 305 303 304 307 308 306 306 308 309 309 308 308 309 309 308 307 308 309 309 309 307 308 309 309 309 310 311 312 312 311 309 306 308 308 309 309 309 309
314 310 305 307 300 299 302 304 303 305 307 308 305 307 307 309 309 309 308 306 306 307 309 309 309 308 307 307 307 305 308 309 310 311 310 310 307 308 307 308 309 309 307 308
313 314 308 305 306 300 299 302 303 303 306 306 304 306 307 307 307 308 308 308 308 307 310 310 309 309 306 307 307 309 309 308 310 311 310 309 310 308 307 308 308 307 307 307
313 313 313 307 306 304 299 300 301 302 304 305 303 304 305 306 306 307 307 308 307 309 310 310 310 309 309 307 307 308 310 311 310 309 310 311 307 307 307 308 307 306 307 306
312 312 313 312 307 305 301 299 300 301 301 303 302 303 303 303 305 306 306 307 307 309 310 310 309 309 309 308 308 307 307 308 309 310 311 309 307 308 307 307 306 306 305 305
311 311 312 312 309 306 305 299 298 300 300 302 302 303 303 303 303 302 305 306 306 307 307 309 309 310 309 309 309 308 308 306 306 307 308 308 307 306 306 305 304 304 304 304
312 311 311 311 310 307 306 305 299 298 300 302 304 303 303 303 303 303 302 303 304 304 304 307 308 308 307 308 308 309 308 306 306 307 307 307 307 306 306 306 305 304 303 303
309 310 310 310 309 306 306 306 302 298 299 302 302 301 302 301 301 301 301 301 302 303 305 306 307 307 307 307 307 308 307 308 308 308 308 308 308 306 304 304 304 304 303 302
308 309 309 309 308 306 305 299 301 302 301 300 304 301 299 298 298 299 300 300 300 302 304 304 305 305 305 308 308 308 307 307 307 307 307 306 306 304 304 303 303 303 302 300
306 307 308 308 307 306 305 301 300 300 300 300 300 303 297 297 297 297 298 298 299 300 302 302 303 303 302 306 307 307 307 307 306 306 306 306 305 304 303 303 303 302 302 301
302 305 307 307 305 305 304 305 304 300 298 299 300 304 298 295 298 299 297 298 298 299 301 300 300 301 301 305 305 305 305 305 305 304 304 304 304 303 303 302 301 301 298 298
302 303 306 305 303 303 304 302 301 299 299 299 298 303 308 295 297 297 296 298 299 298 299 299 300 301 302 303 303 303 304 304 303 303 302 302 302 302 302 300 299 298 298 299
301 303 305 303 302 304 302 300 297 297 298 297 297 300 302 297 297 298 299 298 300 301 300 298 299 301 301 301 302 302 303 303 302 302 302 302 301 300 298 299 300 300 299 300
301 302 303 301 302 301 299 299 298 298 297 297 297 299 301 297 301 301 299 302 300 300 302 300 301 303 302 302 301 301 301 302 302 303 303 302 302 299 299 299 300 301 301 301
301 301 301 300 300 298 298 300 298 298 300 300 299 298 298 297 297 300 298 301 298 301 297 298 300 303 302 301 301 301 301 302 301 302 302 302 299 300 300 300 300 300 301 301
299 300 301 298 298 298 300 301 300 299 299 297 296 297 297 296 297 300 299 300 299 296 298 300 302 304 302 301 301 301 301 301 301 301 301 299 299 300 301 300 299 299 300 300
299 299 299 299 302 299 302 302 302 300 298 296 297 297 298 298 298 299 300 300 297 300 300 302 306 304 301 300 300 300 300 300 300 300 299 299 299 300 300 300 300 299 300 300
297 297 300 300 300 300 299 300 297 296 296 296 297 297 296 298 299 297 299 298 299 300 303 307 303 301 300 300 300 301 300 300 300 300 300 299 299 299 299 299 299 299 299 299
297 298 298 299 298 301 296 296 297 297 296 296 297 298 298 300 299 298 298 300 301 305 301 300 301 301 301 301 301 302 301 300 299 299 299 300 299 299 299 298 298 298 298 298
297 297 297 298 300 300 302 298 299 297 296 300 299 299 299 295 297 298 299 300 303 304 302 303 302 301 302 301 302 302 302 299 299 299 299 299 299 298 298 299 298 297 296 296

GFSNW_850_thetae_114.txt.gz
Theta_e
303 307 303 303 306 306 308 312 317 308 313 316 313 313 311 310 310 310 311 311 312 313 312 313 313 313 313 311 312 313 312 312 312 314 313 312 313 314 312 311 312 311 311 311
300 304 306 303 305 306 306 311 312 310 314 318 314 311 311 311 311 311 312 312 312 311 313 313 313 312 311 311 312 313 312 313 309 314 311 311 311 311 312 312 311 311 309 307
303 301 305 304 305 306 307 312 313 313 311 312 312 312 312 312 310 311 311 312 311 312 312 312 313 312 312 311 312 311 311 312 311 310 311 311 311 311 310 311 310 311 310 309
308 303 301 305 305 306 309 311 310 310 316 312 311 312 312 312 312 311 310 312 312 312 313 312 312 312 311 311 311 311 311 311 310 311 311 311 310 310 310 310 310 311 310 309
308 308 304 302 305 307 307 312 311 309 310 309 311 309 312 312 312 311 312 311 312 311 312 312 312 311 311 310 311 311 311 309 310 307 309 309 309 309 309 309 310 310 310 310
308 308 307 303 302 305 306 307 307 309 309 310 310 311 312 311 310 311 310 310 310 310 310 309 309 309 309 309 310 310 311 309 308 309 309 309 309 309 309 309 308 308 309 309
314 310 307 305 302 302 304 303 305 308 309 308 309 310 309 310 310 310 310 309 309 308 308 307 308 308 308 308 308 309 309 309 309 308 307 309 309 308 307 308 308 307 307 307
314 314 309 306 304 301 302 304 304 307 307 306 306 307 309 309 309 308 309 309 309 308 308 308 308 308 308 308 307 307 307 308 308 305 307 309 309 306 306 306 306 306 306 306
313 313 313 308 306 304 301 301 303 304 307 307 306 306 307 307 307 308 308 308 308 307 308 308 308 307 307 307 307 305 306 307 308 307 308 309 308 306 307 307 305 305 307 306
312 312 312 313 310 306 303 301 301 303 306 306 305 306 306 307 307 307 308 308 307 308 308 308 307 306 306 304 306 305 306 307 309 309 309 308 306 306 307 305 304 306 307 307
312 311 312 312 312 309 305 302 301 300 304 302 303 304 305 305 306 305 307 307 307 307 308 308 307 307 305 306 306 307 307 305 306 307 307 307 307 306 305 305 306 306 307 307
310 311 311 311 311 311 307 303 301 299 300 302 302 302 302 304 305 305 306 307 307 308 307 307 306 307 306 306 305 305 304 307 306 307 307 307 308 308 307 307 307 306 306 306
309 310 311 310 310 311 310 306 302 300 300 303 304 305 303 302 301 303 304 306 306 307 308 307 307 308 306 307 306 307 306 307 304 305 304 305 307 307 307 307 307 306 305 304
308 308 309 310 310 310 310 308 306 302 299 300 303 303 303 303 303 303 303 303 304 304 305 306 306 306 307 306 306 307 306 306 305 305 305 306 306 306 306 306 306 306 304 304
307 306 308 308 309 309 309 308 306 300 300 302 302 303 303 302 301 302 302 302 302 303 304 304 304 306 306 305 305 306 306 306 306 307 307 306 306 306 306 305 305 305 304 304
306 304 306 307 308 308 307 306 301 302 302 301 302 303 301 300 299 299 299 300 300 302 303 304 304 305 305 303 304 305 307 307 307 306 307 307 307 306 306 305 304 304 304 303
300 302 304 306 307 307 307 306 303 302 301 300 300 302 300 297 297 297 298 299 300 301 302 302 303 303 304 301 305 305 307 307 307 307 307 307 306 306 305 305 304 303 303 302
300 300 301 303 306 305 305 305 305 304 300 299 299 300 300 296 298 298 297 298 298 299 301 301 300 302 302 303 303 304 304 305 305 306 305 305 306 305 304 304 303 302 302 301
298 299 300 303 303 304 304 303 302 302 301 298 298 301 304 296 298 298 297 297 297 298 299 299 299 299 301 301 302 302 303 304 304 304 303 304 304 304 304 303 302 301 299 299
297 299 302 302 302 302 302 301 298 297 298 297 296 299 298 299 298 298 299 297 298 300 299 298 299 299 300 300 301 302 302 302 303 304 303 303 303 302 302 300 299 299 300 300
298 300 301 301 302 302 301 299 298 297 297 296 296 298 300 300 300 300 299 300 298 299 299 298 300 300 300 303 303 302 301 301 301 302 303 303 303 302 301 299 299 300 301 301
300 301 300 301 301 299 298 299 298 298 300 299 298 297 298 299 299 299 299 298 298 300 297 297 298 297 302 303 302 301 301 300 300 301 302 302 302 302 300 300 300 300 300 300
298 298 299 298 298 298 299 301 299 299 298 298 297 295 298 297 297 299 299 298 299 296 297 296 296 300 302 302 300 300 300 300 302 302 301 301 302 302 299 300 301 301 300 300
297 298 299 297 298 299 298 298 298 300 300 298 297 297 297 298 297 298 299 299 296 296 296 296 296 304 302 301 300 299 300 300 300 300 300 300 299 299 299 300 300 300 300 300
297 297 297 298 298 301 300 301 301 297 297 297 297 297 297 295 298 298 299 299 298 297 296 299 303 302 302 302 303 303 302 301 300 300 299 299 299 299 299 299 299 299 299 299
297 295 297 298 298 299 298 299 299 298 297 298 298 298 297 298 297 299 294 297 296 296 296 301 302 301 301 302 302 302 302 304 302 301 301 299 299 299 299 298 299 299 298 298
295 296 296 296 297 298 299 300 299 298 297 294 298 298 297 296 296 296 297 296 296 302 301 301 301 301 301 301 302 303 303 303 303 303 304 303 299 298 298 299 299 299 298 297

GFSNW_850_thetae_117.txt.gz
Theta_e
301 305 305 304 305 307 309 312 307 311 313 310 308 303 309 309 309 310 310 310 310 311 311 312 312 311 312 311 310 312 311 310 308 310 309 310 310 311 310 308 310 307 307 307
303 301 305 305 306 306 308 310 312 311 313 305 301 309 310 310 309 310 311 311 311 310 311 311 311 311 311 311 311 311 310 309 303 308 307 309 310 309 310 310 308 308 308 307
309 304 302 305 306 306 308 311 304 311 311 311 308 310 311 310 310 310 310 310 310 310 311 311 311 311 311 311 311 311 310 309 307 303 307 309 310 309 309 310 305 308 310 309
309 309 304 303 306 306 310 311 306 309 305 309 309 310 310 311 311 310 310 310 310 311 311 310 310 310 310 310 311 310 309 309 307 308 308 309 310 310 309 309 309 309 309 307
313 309 309 304 304 307 307 310 310 309 309 309 309 308 311 311 310 310 310 310 310 310 310 310 310 309 309 308 309 309 309 306 308 303 307 307 307 307 308 308 308 309 309 308
314 313 309 310 306 304 305 307 307 308 308 307 306 307 310 310 309 310 310 309 308 308 308 308 308 308 309 308 308 308 308 306 304 306 306 305 306 307 306 306 306 308 308 308
313 314 313 309 308 305 303 304 306 307 304 304 306 309 309 309 309 309 309 309 308 308 308 307 307 307 307 306 306 309 306 306 304 304 304 306 304 306 305 306 307 306 306 306
312 312 313 314 309 308 303 302 304 306 302 305 305 306 307 308 308 308 307 308 308 308 308 306 304 303 306 306 305 304 305 305 304 304 303 305 307 306 305 305 304 304 306 306
312 311 311 312 312 310 307 304 301 303 305 303 305 305 306 303 304 304 308 308 308 307 306 305 307 305 304 305 306 303 305 304 304 304 306 309 305 305 307 305 302 303 304 303
311 311 311 311 311 311 310 307 304 302 304 304 306 304 304 307 306 303 307 307 307 307 305 307 305 303 304 304 305 305 305 306 308 308 309 306 305 305 307 305 305 306 306 306
311 310 311 311 310 311 310 309 309 306 301 304 303 304 304 306 306 303 307 305 307 305 306 305 305 303 304 305 303 304 305 304 305 306 307 306 305 305 305 305 305 307 306 306
311 310 310 311 310 310 310 309 308 307 306 307 306 304 303 304 303 305 305 306 307 308 305 304 304 305 303 304 305 302 305 305 306 305 306 305 306 307 307 307 306 306 306 306
310 308 308 309 310 310 309 308 308 307 304 305 306 306 303 303 302 303 305 305 306 307 308 307 305 306 303 306 305 305 305 305 304 304 304 305 307 308 308 308 307 307 307 307
309 307 307 307 308 309 309 308 307 307 304 300 304 304 305 304 303 302 302 303 304 305 305 305 303 304 305 303 304 304 305 305 303 304 305 306 306 306 306 306 306 306 306 306
307 306 306 306 307 307 307 308 307 303 302 300 303 306 305 304 303 302 301 302 302 302 303 300 302 304 304 303 302 305 305 305 306 306 307 305 306 306 306 306 306 306 305 305
306 306 303 304 306 307 307 307 301 301 302 304 300 304 303 301 300 300 300 300 300 301 302 302 304 305 304 301 301 303 306 306 306 305 306 306 306 306 306 306 306 306 305 304
302 301 301 303 304 306 307 307 303 304 304 301 300 301 300 298 298 298 298 299 300 301 302 302 302 303 304 300 302 304 305 305 305 305 305 305 306 306 306 306 306 305 304 304
299 299 300 300 301 303 305 305 305 305 303 301 298 299 300 297 298 298 297 298 298 299 300 301 300 301 302 302 302 303 303 303 303 304 305 304 304 305 304 305 305 304 304 303
296 297 297 297 299 301 303 303 303 302 302 299 297 299 303 297 298 298 297 297 297 298 299 299 299 299 301 301 301 301 301 301 301 301 301 303 304 303 303 304 304 304 303 301
295 296 297 301 302 302 302 301 299 298 298 297 296 298 297 299 297 297 297 297 297 298 299 298 299 300 300 300 301 302 303 302 302 300 299 300 302 303 303 303 303 301 300 299
296 299 300 301 301 301 301 299 298 296 296 297 296 296 299 298 299 299 299 296 296 298 297 297 299 299 297 303 302 301 299 299 300 299 299 300 300 302 302 302 301 299 299 299
299 300 300 300 300 299 298 299 298 297 297 297 297 297 297 299 299 299 299 297 297 299 297 297 297 295 302 302 301 301 300 301 300 301 302 302 301 301 302 302 302 299 300 300
298 297 297 298 297 298 299 295 296 297 298 298 297 295 298 297 297 298 297 299 299 295 296 297 295 298 302 301 301 302 302 301 301 300 299 300 301 301 301 302 301 299 300 300
296 296 296 297 295 298 296 295 295 298 299 298 298 296 297 296 295 296 298 297 296 297 295 294 292 301 301 301 302 301 301 302 303 304 303 302 301 300 299 298 298 299 299 299
295 295 296 296 297 298 299 299 299 298 299 297 297 297 297 294 293 296 294 296 293 292 293 293 300 302 301 300 300 301 300 301 301 301 302 303 302 302 302 300 298 298 298 299
295 295 295 296 296 296 297 299 299 299 297 297 298 297 297 298 296 296 295 292 292 293 291 300 301 301 299 299 299 299 299 300 301 300 301 301 301 301 301 301 300 298 298 298
295 295 295 295 295 296 298 298 299 298 297 296 296 297 295 293 297 296 291 291 295 299 300 301 299 298 298 298 298 298 299 300 301 300 300 301 300 300 300 300 301 300 298 297

GFSNW_850_thetae_123.txt.gz
Theta_e
306 303 305 305 305 308 309 310 306 311 311 306 303 301 306 308 308 309 309 309 309 309 309 310 310 310 309 309 308 310 308 306 306 309 307 307 307 309 307 306 305 305 304 305
309 307 304 306 306 306 308 311 311 310 309 301 298 307 309 308 309 309 309 310 309 308 309 310 309 309 309 309 309 309 308 306 301 301 304 308 310 308 308 305 304 305 305 305
312 311 309 305 306 308 310 309 302 310 310 307 305 307 309 309 309 309 309 309 309 309 309 309 309 309 309 309 310 310 309 304 304 300 301 305 309 307 307 308 305 308 309 308
313 314 312 310 305 307 308 307 305 307 302 306 307 307 308 309 309 309 309 309 309 309 310 309 309 308 309 308 310 309 306 307 303 304 304 305 306 307 306 308 310 309 308 306
312 312 314 312 309 305 306 308 307 307 306 307 307 305 308 308 309 308 308 309 308 307 308 307 307 307 307 307 308 307 305 305 306 302 306 305 306 306 306 307 307 307 308 308
312 312 312 313 312 308 304 305 307 308 304 303 302 304 308 308 308 308 308 308 307 307 306 308 308 308 307 306 307 306 306 305 304 306 304 303 303 303 304 304 304 306 307 307
311 311 312 312 313 311 308 305 305 305 303 302 303 306 307 307 308 307 308 308 307 306 308 307 306 305 305 304 304 307 304 304 302 304 302 301 303 302 302 303 303 304 305 304
311 311 311 311 311 312 310 309 307 304 300 302 303 303 305 306 306 307 307 307 307 307 307 303 302 299 304 304 302 301 303 304 304 302 300 303 304 305 303 304 304 302 304 304
310 310 311 311 311 311 310 310 309 306 303 303 304 304 304 302 301 302 306 307 307 307 303 303 304 303 302 303 304 300 301 302 304 303 306 305 302 304 305 303 303 303 303 302
309 309 310 311 310 310 310 309 309 308 306 307 304 304 302 305 303 301 303 306 306 306 302 305 304 303 302 303 304 305 303 302 306 306 306 306 304 304 305 306 304 304 305 305
310 309 310 310 310 310 310 309 308 307 307 309 308 306 305 305 305 301 303 303 304 303 304 303 303 303 303 303 301 303 304 303 305 305 306 306 304 303 305 305 306 306 306 306
310 310 309 309 309 309 309 309 308 308 307 308 308 307 305 304 303 304 304 302 305 305 301 300 301 304 301 302 304 300 303 303 304 305 305 304 305 306 307 306 305 306 305 305
309 309 309 308 308 308 307 308 306 307 306 306 305 306 306 305 305 303 303 303 304 306 306 304 302 305 301 305 302 302 301 302 302 303 303 304 305 306 305 306 305 305 305 305
309 308 307 307 306 307 307 306 306 305 305 301 305 304 303 303 304 304 303 303 303 304 305 305 302 304 303 302 303 302 303 302 301 300 303 304 307 305 304 304 304 304 304 304
307 307 306 305 305 305 305 306 307 305 305 300 305 306 305 304 303 302 302 302 301 302 302 299 300 301 302 301 299 300 303 302 302 303 303 302 303 303 303 302 303 302 301 303
304 304 304 304 303 302 303 306 303 302 304 304 301 304 303 302 302 301 300 300 300 301 302 300 301 302 302 299 300 302 303 304 304 302 303 302 301 301 301 300 299 300 300 302
301 301 302 301 301 301 303 305 304 301 302 303 303 303 300 299 298 298 298 298 299 300 301 300 300 301 303 299 301 303 303 303 303 303 301 299 300 299 300 299 299 300 301 302
299 298 298 298 299 299 300 300 301 302 303 303 301 301 299 298 297 297 297 298 298 298 299 300 299 300 300 300 301 302 303 301 300 299 299 298 299 300 301 299 299 301 301 301
297 296 296 296 296 298 299 299 300 301 302 301 299 295 297 298 298 298 297 297 297 297 298 298 299 299 300 300 301 302 301 299 299 300 300 300 300 299 300 301 302 301 302 302
295 295 295 298 298 298 298 300 300 299 300 299 297 297 296 298 296 296 296 296 297 297 297 298 298 299 300 300 301 301 299 298 297 297 297 298 300 300 300 300 301 301 302 302
294 296 297 297 298 299 298 298 298 298 297 297 297 297 298 298 300 299 299 295 297 296 296 298 299 298 297 301 300 299 298 298 297 296 295 296 297 298 299 300 300 301 301 301
297 297 297 297 297 297 297 298 298 297 297 295 295 295 297 298 299 299 298 296 296 297 295 295 295 296 301 300 299 299 298 297 297 296 295 295 297 297 298 299 300 300 300 300
296 296 297 296 295 296 297 291 298 296 295 296 295 295 297 297 297 297 297 298 297 295 294 294 294 296 299 300 299 299 297 296 296 296 297 296 295 297 297 298 299 299 299 300
295 295 293 293 287 293 290 289 288 296 297 297 297 296 296 295 294 295 298 295 294 294 295 292 291 298 299 298 299 296 296 296 296 296 296 296 295 295 296 296 297 298 298 298
294 293 291 286 293 294 295 295 297 298 298 297 297 296 296 292 292 295 296 297 298 297 290 290 297 297 296 295 295 295 296 295 294 293 293 294 294 294 295 295 295 296 297 297
294 294 293 293 293 294 295 295 296 298 297 297 298 295 296 296 295 296 296 295 293 292 288 297 296 295 295 295 296 295 294 293 293 292 294 294 294 295 295 295 295 296 297 298
294 293 293 293 293 294 295 295 296 296 297 293 295 296 295 290 293 296 294 289 289 296 296 295 295 295 295 295 293 292 292 292 293 294 294 294 294 295 295 295 296 297 297 297